WA4BPS Weather Reports


time (UTC)temp
C
wind
direction
speed
KPH
gust
KPH
rain 1hr
cm
rain 24hr
cm
rain mn
cm
humidity
%
barometer
mb
20260507210936 16 326 9.7 20.9 0.00 0.00 0.00 64 1010.7
20260507210833 16 328 6.4 20.9 0.00 0.00 0.00 64 1010.7
20260507210731 16 121 4.8 20.9 0.00 0.00 0.00 63 1010.7
20260507210629 16 330 8.0 20.9 0.00 0.00 0.00 65 1010.7
20260507210525 16 335 6.4 20.9 0.00 0.00 0.00 65 1010.7
20260507210443 16 330 8.0 19.3 0.00 0.00 0.00 63 1010.7
20260507210340 16 330 8.0 19.3 0.00 0.00 0.00 63 1010.7
20260507210300 16 330 9.7 19.3 0.00 0.00 0.00 64 1010.7
20260507210208 16 332 6.4 19.3 0.00 0.00 0.00 63 1010.7
20260507210043 16 330 6.4 19.3 0.00 0.00 0.00 63 1010.7
20260507205941 16 330 8.0 19.3 0.00 0.00 0.00 63 1010.7
20260507205836 16 330 12.9 19.3 0.00 0.00 0.00 63 1010.6
20260507205731 16 337 14.5 20.9 0.00 0.00 0.00 64 1010.6
20260507205629 16 332 6.4 20.9 0.00 0.00 0.00 62 1010.6
20260507205530 16 332 8.0 20.9 0.00 0.00 0.00 64 1010.6
20260507205426 16 325 8.0 20.9 0.00 0.00 0.00 64 1010.6
20260507205344 16 330 8.0 20.9 0.00 0.00 0.00 64 1010.6
20260507205241 16 330 12.9 20.9 0.00 0.00 0.00 65 1010.6
20260507205136 16 328 14.5 20.9 0.00 0.00 0.00 63 1010.6
20260507205035 16 337 12.9 20.9 0.00 0.00 0.00 62 1010.6
20260507204931 16 323 12.9 20.9 0.00 0.00 0.00 62 1010.6
20260507204833 16 339 12.9 19.3 0.00 0.00 0.00 62 1010.6
20260507204750 16 337 8.0 19.3 0.00 0.00 0.00 63 1010.6
20260507204720 16 328 3.2 19.3 0.00 0.00 0.00 65 1010.6
20260507204541 16 326 4.8 17.7 0.00 0.00 0.00 63 1010.6
20260507204440 16 330 6.4 17.7 0.00 0.00 0.00 63 1010.6
20260507204339 16 343 6.4 17.7 0.00 0.00 0.00 63 1010.7
20260507204237 16 319 8.0 17.7 0.00 0.00 0.00 63 1010.7
20260507204136 16 354 8.0 17.7 0.00 0.00 0.00 63 1010.7
20260507204054 16 330 6.4 17.7 0.00 0.00 0.00 64 1010.7
20260507203936 16 328 4.8 17.7 0.00 0.00 0.00 65 1010.7
20260507203839 16 322 9.7 17.7 0.00 0.00 0.00 65 1010.7
20260507203737 16 328 12.9 17.7 0.00 0.00 0.00 63 1010.7
20260507203635 16 326 9.7 17.7 0.00 0.00 0.00 65 1010.7
20260507203554 16 343 4.8 17.7 0.00 0.00 0.00 64 1010.7
20260507203430 16 330 4.8 17.7 0.00 0.00 0.00 64 1010.7
20260507203329 16 315 1.6 17.7 0.00 0.00 0.00 66 1010.7
20260507203228 16 330 8.0 17.7 0.00 0.00 0.00 65 1010.7
20260507203158 16 328 9.7 17.7 0.00 0.00 0.00 65 1010.7
20260507203101 16 330 9.7 17.7 0.00 0.00 0.00 66 1010.7
20260507202938 16 320 11.3 17.7 0.00 0.00 0.00 66 1010.7
20260507202837 16 325 11.3 16.1 0.00 0.00 0.00 65 1010.7
20260507202755 16 360 11.3 16.1 0.00 0.00 0.00 66 1010.7
20260507202632 16 328 6.4 12.9 0.00 0.00 0.00 67 1010.7
20260507202531 16 330 9.7 12.9 0.00 0.00 0.00 66 1010.7
20260507202431 16 349 6.4 14.5 0.00 0.00 0.00 65 1010.7
20260507202335 16 343 1.6 14.5 0.00 0.00 0.00 67 1010.7
20260507202234 16 337 3.2 14.5 0.00 0.00 0.00 68 1010.7
20260507202132 16 316 6.4 16.1 0.00 0.00 0.00 66 1010.7
20260507202031 16 330 6.4 16.1 0.00 0.00 0.00 66 1010.7
20260507201930 16 330 4.8 16.1 0.00 0.00 0.00 67 1010.7
20260507201828 16 330 4.8 16.1 0.00 0.00 0.00 68 1010.7
20260507201727 16 328 6.4 19.3 0.00 0.00 0.00 66 1010.7
20260507201659 16 326 9.7 19.3 0.00 0.00 0.00 66 1010.7
20260507201538 16 330 9.7 19.3 0.00 0.00 0.00 67 1010.7
20260507201436 16 322 11.3 19.3 0.00 0.00 0.00 66 1010.7
20260507201335 16 325 11.3 19.3 0.00 0.00 0.00 66 1010.4
20260507201233 16 330 8.0 19.3 0.00 0.00 0.00 66 1010.4
20260507201132 16 292 6.4 20.9 0.00 0.00 0.00 67 1010.4
20260507201030 16 330 8.0 20.9 0.00 0.00 0.00 65 1010.4
20260507200932 16 329 9.7 20.9 0.00 0.00 0.00 66 1010.4
20260507200830 16 330 8.0 20.9 0.00 0.00 0.00 65 1010.4
20260507200729 16 330 11.3 20.9 0.00 0.00 0.00 66 1010.4
20260507200627 16 332 6.4 20.9 0.00 0.00 0.00 65 1010.4
20260507200527 16 330 6.4 20.9 0.00 0.00 0.00 64 1010.4
20260507200426 16 294 12.9 20.9 0.00 0.00 0.00 63 1010.4
20260507200328 16 330 12.9 20.9 0.00 0.00 0.00 63 1010.4
20260507200238 16 329 11.3 25.7 0.00 0.00 0.00 65 1010.4
20260507200148 16 326 4.8 25.7 0.00 0.00 0.00 65 1010.4
20260507200044 16 330 9.7 25.7 0.00 0.00 0.00 64 1010.4
20260507195940 16 328 9.7 25.7 0.00 0.00 0.00 65 1010.4
20260507195839 16 326 3.2 25.7 0.00 0.00 0.00 66 1010.7
20260507195737 16 330 6.4 25.7 0.00 0.00 0.00 64 1010.7
20260507195635 16 333 14.5 25.7 0.00 0.00 0.00 63 1010.7
20260507195533 16 329 12.9 25.7 0.00 0.00 0.00 64 1010.7
20260507195436 16 329 14.5 25.7 0.00 0.00 0.00 67 1010.7
20260507195335 16 328 3.2 14.5 0.00 0.00 0.00 67 1010.7
20260507195234 16 323 4.8 14.5 0.00 0.00 0.00 66 1010.7
20260507195133 16 335 4.8 16.1 0.00 0.00 0.00 67 1010.7
20260507195032 16 326 8.0 19.3 0.00 0.00 0.00 67 1010.7
20260507194930 16 323 1.6 19.3 0.00 0.00 0.00 66 1010.7
20260507194833 16 330 6.4 19.3 0.00 0.00 0.00 66 1010.7
20260507194731 16 329 3.2 22.5 0.00 0.00 0.00 66 1010.7
20260507194702 16 329 1.6 22.5 0.00 0.00 0.00 66 1010.7
20260507194540 16 147 4.8 22.5 0.00 0.00 0.00 65 1010.7
20260507194439 16 49 8.0 22.5 0.00 0.00 0.00 64 1010.7
20260507194337 16 301 8.0 22.5 0.00 0.00 0.00 65 1010.6
20260507194235 16 326 14.5 22.5 0.00 0.00 0.00 63 1010.6
20260507194139 16 336 11.3 22.5 0.00 0.00 0.00 65 1010.6
20260507194037 16 337 9.7 22.5 0.00 0.00 0.00 65 1010.6
20260507193936 16 328 11.3 22.5 0.00 0.00 0.00 66 1010.6
20260507193835 16 330 0.0 19.3 0.00 0.00 0.00 65 1010.6
20260507193733 16 336 8.0 19.3 0.00 0.00 0.00 65 1010.6
20260507193631 16 340 8.0 19.3 0.00 0.00 0.00 63 1010.6
20260507193530 16 329 9.7 19.3 0.00 0.00 0.00 64 1010.6
20260507193432 16 326 14.5 19.3 0.00 0.00 0.00 65 1010.6
20260507193331 16 350 9.7 19.3 0.00 0.00 0.00 64 1010.6
20260507193249 16 326 12.9 19.3 0.00 0.00 0.00 66 1010.6
20260507193158 16 322 6.4 19.3 0.00 0.00 0.00 66 1010.6
20260507193034 16 344 8.0 19.3 0.00 0.00 0.00 64 1010.6
20260507192933 16 330 4.8 19.3 0.00 0.00 0.00 63 1010.6
20260507192833 16 346 4.8 19.3 0.00 0.00 0.00 62 1010.5
20260507192737 16 347 6.4 19.3 0.00 0.00 0.00 65 1010.5
20260507192655 16 347 11.3 19.3 0.00 0.00 0.00 63 1010.5
20260507192535 16 339 12.9 19.3 0.00 0.00 0.00 65 1010.5
20260507192434 16 322 9.7 19.3 0.00 0.00 0.00 64 1010.5
20260507192332 16 333 8.0 19.3 0.00 0.00 0.00 65 1010.5
20260507192230 16 346 9.7 19.3 0.00 0.00 0.00 64 1010.5
20260507192129 16 346 9.7 19.3 0.00 0.00 0.00 65 1010.5
20260507192032 16 208 11.3 19.3 0.00 0.00 0.00 65 1010.5
20260507191950 16 263 11.3 17.7 0.00 0.00 0.00 65 1010.5
20260507191827 16 330 12.9 17.7 0.00 0.00 0.00 66 1010.5
20260507191737 16 325 4.8 17.7 0.00 0.00 0.00 67 1010.5
20260507191647 16 328 3.2 22.5 0.00 0.00 0.00 65 1010.5
20260507191525 16 328 3.2 22.5 0.00 0.00 0.00 65 1010.5
20260507191424 15 328 4.8 22.5 0.00 0.00 0.00 66 1010.5
20260507191342 15 330 3.2 22.5 0.00 0.00 0.00 66 1010.5
20260507191224 15 326 11.3 22.5 0.00 0.00 0.00 64 1010.5
20260507191142 15 326 4.8 22.5 0.00 0.00 0.00 64 1010.5
20260507191041 15 360 8.0 22.5 0.00 0.00 0.00 65 1010.5
20260507190940 15 349 6.4 22.5 0.00 0.00 0.00 64 1010.5
20260507190838 15 268 9.7 22.5 0.00 0.00 0.00 65 1010.5
20260507190756 15 328 14.5 22.5 0.00 0.00 0.00 66 1010.5
20260507190654 15 319 6.4 20.9 0.00 0.00 0.00 63 1010.5
20260507190531 15 320 12.9 20.9 0.00 0.00 0.00 64 1010.5
20260507190433 15 325 14.5 20.9 0.00 0.00 0.00 65 1010.5
20260507190352 15 322 11.3 20.9 0.00 0.00 0.00 65 1010.5
20260507190229 15 329 11.3 19.3 0.00 0.00 0.00 67 1010.5
20260507190159 15 330 8.0 19.3 0.00 0.00 0.00 67 1010.5
20260507190057 15 339 4.8 19.3 0.00 0.00 0.00 67 1010.5
20260507185955 15 325 1.6 19.3 0.00 0.00 0.00 66 1010.5
20260507185831 15 325 6.4 19.3 0.00 0.00 0.00 67 1010.6
20260507185729 15 332 1.6 19.3 0.00 0.00 0.00 64 1010.6
20260507185633 15 337 4.8 19.3 0.00 0.00 0.00 64 1010.6
20260507185530 15 312 3.2 19.3 0.00 0.00 0.00 64 1010.6
20260507185428 15 329 6.4 19.3 0.00 0.00 0.00 64 1010.6
20260507185327 15 330 14.5 19.3 0.00 0.00 0.00 67 1010.6
20260507185226 15 328 11.3 19.3 0.00 0.00 0.00 67 1010.6
20260507185125 15 328 12.9 19.3 0.00 0.00 0.00 67 1010.6
20260507185043 15 330 11.3 19.3 0.00 0.00 0.00 65 1010.6
20260507184941 15 330 8.0 19.3 0.00 0.00 0.00 67 1010.6
20260507184842 15 330 6.4 19.3 0.00 0.00 0.00 66 1010.6
20260507184741 15 342 11.3 19.3 0.00 0.00 0.00 66 1010.6
20260507184712 15 329 12.9 19.3 0.00 0.00 0.00 68 1010.6
20260507184529 15 335 9.7 20.9 0.00 0.00 0.00 67 1010.6
20260507184426 15 329 9.7 20.9 0.00 0.00 0.00 67 1010.6
20260507184344 15 325 6.4 22.5 0.00 0.00 0.00 67 1010.6
20260507184242 15 325 6.4 22.5 0.00 0.00 0.00 68 1010.6
20260507184139 15 326 9.7 22.5 0.00 0.00 0.00 66 1010.6
20260507184038 15 328 9.7 22.5 0.00 0.00 0.00 67 1010.6
20260507183940 15 179 8.0 22.5 0.00 0.00 0.00 68 1010.6
20260507183838 15 326 8.0 22.5 0.00 0.00 0.00 68 1010.6
20260507183737 15 330 11.3 22.5 0.00 0.00 0.00 66 1010.6
20260507183635 15 329 8.0 22.5 0.00 0.00 0.00 69 1010.6
20260507183532 15 329 14.5 22.5 0.00 0.00 0.00 67 1010.6
20260507183431 15 329 3.2 17.7 0.00 0.00 0.00 67 1010.6
20260507183334 15 342 1.6 20.9 0.00 0.00 0.00 68 1010.6
20260507183232 15 330 1.6 20.9 0.00 0.00 0.00 69 1010.6
20260507183202 15 329 8.0 20.9 0.00 0.00 0.00 69 1010.6
20260507183038 15 349 9.7 20.9 0.00 0.00 0.00 66 1010.6
20260507182937 15 332 6.4 20.9 0.00 0.00 0.00 66 1010.6
20260507182836 15 330 11.3 20.9 0.00 0.00 0.00 67 1010.9
20260507182734 15 227 11.3 20.9 0.00 0.00 0.00 66 1010.9
20260507182631 15 298 12.9 20.9 0.00 0.00 0.00 67 1010.9
20260507182533 15 109 17.7 20.9 0.00 0.00 0.00 68 1010.9
20260507182430 15 14 11.3 19.3 0.00 0.00 0.00 69 1010.9
20260507182333 15 313 3.2 19.3 0.00 0.00 0.00 69 1010.9
20260507182252 15 359 8.0 19.3 0.00 0.00 0.00 69 1010.9
20260507182130 15 47 6.4 20.9 0.00 0.00 0.00 68 1010.9
20260507182029 15 61 6.4 20.9 0.00 0.00 0.00 70 1010.9
20260507181927 15 329 9.7 20.9 0.00 0.00 0.00 69 1010.9
20260507181826 15 330 9.7 20.9 0.00 0.00 0.00 68 1010.9
20260507181749 15 330 6.4 20.9 0.00 0.00 0.00 68 1010.9
20260507181658 15 289 6.4 20.9 0.00 0.00 0.00 68 1010.9
20260507181556 15 167 12.9 20.9 0.00 0.00 0.00 66 1010.9
20260507181433 15 311 11.3 20.9 0.00 0.00 0.00 69 1010.9
20260507181335 15 147 12.9 20.9 0.00 0.00 0.00 70 1010.9
20260507181233 15 326 12.9 20.9 0.00 0.00 0.00 69 1010.9
20260507181132 15 329 9.7 19.3 0.00 0.00 0.00 67 1010.9
20260507181031 15 343 6.4 19.3 0.00 0.00 0.00 67 1010.9
20260507180936 15 83 8.0 20.9 0.00 0.00 0.00 67 1010.9
20260507180853 15 335 9.7 20.9 0.00 0.00 0.00 66 1010.9
20260507180731 15 169 3.2 20.9 0.00 0.00 0.00 69 1010.9
20260507180630 15 323 8.0 20.9 0.00 0.00 0.00 70 1010.9
20260507180531 15 123 4.8 20.9 0.00 0.00 0.00 70 1010.9
20260507180450 15 267 11.3 20.9 0.00 0.00 0.00 70 1010.9
20260507180327 15 360 11.3 24.1 0.00 0.00 0.00 69 1010.9
20260507180245 15 344 12.9 24.1 0.00 0.00 0.00 69 1010.9
20260507180219 15 332 14.5 24.1 0.00 0.00 0.00 70 1010.9
20260507180034 15 350 3.2 24.1 0.00 0.00 0.00 71 1010.9
20260507175933 15 336 4.8 24.1 0.00 0.00 0.00 70 1010.9
20260507175832 15 329 6.4 24.1 0.00 0.00 0.00 69 1011.1
20260507175730 15 330 12.9 24.1 0.00 0.00 0.00 71 1011.1
20260507175628 15 329 9.7 24.1 0.00 0.00 0.00 69 1011.1
20260507175525 15 320 11.3 24.1 0.00 0.00 0.00 69 1011.1
20260507175428 15 330 6.4 22.5 0.00 0.00 0.00 69 1011.1
20260507175346 15 332 9.7 22.5 0.00 0.00 0.00 71 1011.1
20260507175307 15 326 12.9 22.5 0.00 0.00 0.00 70 1011.1
20260507175202 15 330 9.7 22.5 0.00 0.00 0.00 68 1011.1
20260507175039 15 71 8.0 22.5 0.00 0.00 0.00 68 1011.1
20260507174938 15 353 12.9 22.5 0.00 0.00 0.00 68 1011.1
20260507174836 15 329 16.1 25.7 0.00 0.00 0.00 69 1011.1
20260507174736 15 330 14.5 25.7 0.00 0.00 0.00 69 1011.1
20260507174713 15 82 16.1 25.7 0.00 0.00 0.00 69 1011.1
20260507174529 15 330 11.3 25.7 0.00 0.00 0.00 69 1011.1
20260507174447 15 182 8.0 25.7 0.00 0.00 0.00 68 1011.1
20260507174324 15 344 6.4 25.7 0.00 0.00 0.00 70 1011.3
20260507174224 15 162 9.7 25.7 0.00 0.00 0.00 71 1011.3
20260507174143 15 76 11.3 25.7 0.00 0.00 0.00 68 1011.3
20260507174042 15 18 16.1 25.7 0.00 0.00 0.00 70 1011.3
20260507173939 15 326 9.7 25.7 0.00 0.00 0.00 71 1011.3
20260507173842 15 328 14.5 19.3 0.00 0.00 0.00 70 1011.3
20260507173800 15 168 12.9 19.3 0.00 0.00 0.00 69 1011.3
20260507173636 15 347 3.2 17.7 0.00 0.00 0.00 69 1011.3
20260507173536 15 254 3.2 17.7 0.00 0.00 0.00 69 1011.3
20260507173454 15 222 6.4 17.7 0.00 0.00 0.00 69 1011.3
20260507173331 15 291 9.7 17.7 0.00 0.00 0.00 69 1011.3
20260507173240 15 175 11.3 17.7 0.00 0.00 0.00 69 1011.3
20260507173151 15 296 9.7 17.7 0.00 0.00 0.00 70 1011.3
20260507173027 15 116 4.8 17.7 0.00 0.00 0.00 72 1011.3
20260507172928 15 330 6.4 17.7 0.00 0.00 0.00 71 1011.3
20260507172847 15 333 11.3 19.3 0.00 0.00 0.00 70 1011.5
20260507172724 15 315 9.7 19.3 0.00 0.00 0.00 71 1011.5
20260507172642 15 330 4.8 19.3 0.00 0.00 0.00 71 1011.5
20260507172540 15 330 8.0 19.3 0.00 0.00 0.00 71 1011.5
20260507172439 15 330 4.8 19.3 0.00 0.00 0.00 71 1011.5
20260507172337 15 330 8.0 19.3 0.00 0.00 0.00 69 1011.5
20260507172255 15 130 9.7 19.3 0.00 0.00 0.00 70 1011.5
20260507172136 15 316 8.0 19.3 0.00 0.00 0.00 71 1011.5
20260507172055 15 244 12.9 19.3 0.00 0.00 0.00 72 1011.5
20260507171932 15 328 11.3 19.3 0.00 0.00 0.00 71 1011.5
20260507171829 14 330 4.8 19.3 0.00 0.00 0.00 71 1011.5
20260507171738 14 330 8.0 22.5 0.00 0.00 0.00 74 1011.5
20260507171648 14 353 12.9 22.5 0.00 0.00 0.00 72 1011.5
20260507171526 14 128 12.9 22.5 0.00 0.00 0.00 72 1011.5
20260507171446 14 330 11.3 22.5 0.00 0.00 0.00 72 1011.5
20260507171327 14 332 16.1 22.5 0.00 0.00 0.00 72 1011.3
20260507171245 14 217 11.3 22.5 0.00 0.00 0.00 72 1011.3
20260507171143 14 261 9.7 22.5 0.00 0.00 0.00 71 1011.3
20260507171041 14 27 12.9 22.5 0.00 0.00 0.00 71 1011.3
20260507170940 14 323 16.1 22.5 0.00 0.00 0.00 72 1011.3
20260507170857 14 295 16.1 22.5 0.00 0.00 0.00 73 1011.3
20260507170754 14 326 12.9 19.3 0.00 0.00 0.00 75 1011.3
20260507170632 14 326 8.0 19.3 0.00 0.00 0.00 75 1011.3
20260507170531 14 330 14.5 19.3 0.00 0.00 0.00 76 1011.3
20260507170433 14 329 9.7 19.3 0.00 0.00 0.00 77 1011.3
20260507170350 14 360 3.2 19.3 0.00 0.00 0.00 77 1011.3
20260507170240 14 332 3.2 25.7 0.00 0.00 0.00 76 1011.3
20260507170150 14 182 8.0 25.7 0.00 0.00 0.00 75 1011.3
20260507170026 14 337 12.9 25.7 0.00 0.00 0.00 74 1011.3
20260507165924 14 306 14.5 25.7 0.00 0.00 0.00 74 1011.3
20260507165842 14 330 12.9 25.7 0.00 0.00 0.00 75 1011.6
20260507165740 13 285 9.7 25.7 0.00 0.00 0.00 76 1011.6
20260507165642 13 174 8.0 25.7 0.00 0.00 0.00 76 1011.6
20260507165600 13 136 9.7 25.7 0.00 0.00 0.00 75 1011.6
20260507165458 13 329 12.9 25.7 0.00 0.00 0.00 77 1011.6
20260507165336 13 203 11.3 22.5 0.00 0.00 0.00 77 1011.6
20260507165233 13 272 9.7 22.5 0.00 0.00 0.00 78 1011.6
20260507165132 13 325 3.2 22.5 0.00 0.00 0.00 77 1011.6
20260507165030 13 343 9.7 25.7 0.00 0.00 0.00 76 1011.6
20260507164929 13 329 8.0 25.7 0.00 0.00 0.00 74 1011.6
20260507164831 13 296 17.7 30.6 0.00 0.00 0.00 76 1011.6
20260507164729 13 329 14.5 30.6 0.00 0.00 0.00 77 1011.6
20260507164659 13 332 11.3 30.6 0.00 0.00 0.00 77 1011.6
20260507164537 13 336 12.9 30.6 0.00 0.00 0.00 79 1011.6
20260507164437 13 333 14.5 30.6 0.00 0.00 0.00 78 1011.6
20260507164336 13 281 14.5 30.6 0.00 0.00 0.00 80 1011.6
20260507164235 13 268 12.9 30.6 0.00 0.00 0.00 79 1011.6
20260507164136 13 326 11.3 30.6 0.00 0.00 0.00 79 1011.6
20260507164035 13 346 14.5 30.6 0.00 0.00 0.00 78 1011.6
20260507163935 13 359 14.5 30.6 0.00 0.00 0.00 81 1011.6
20260507163833 13 329 8.0 27.4 0.00 0.00 0.00 82 1011.6
20260507163753 13 330 12.9 27.4 0.00 0.00 0.00 83 1011.6
20260507163630 13 330 8.0 27.4 0.00 0.00 0.00 82 1011.6
20260507163528 13 322 14.5 27.4 0.00 0.00 0.00 82 1011.6
20260507163433 13 333 20.9 27.4 0.00 0.00 0.00 84 1011.6
20260507163332 13 330 14.5 22.5 0.00 0.00 0.00 84 1011.6
20260507163233 13 234 16.1 22.5 0.00 0.00 0.00 83 1011.6
20260507163203 13 333 9.7 22.5 0.00 0.00 0.00 83 1011.6
20260507163041 13 313 8.0 22.5 0.00 0.00 0.00 83 1011.6
20260507162938 13 336 14.5 22.5 0.00 0.00 0.00 82 1011.6
20260507162837 13 38 14.5 20.9 0.00 0.00 0.00 83 1011.2
20260507162739 13 320 14.5 20.9 0.00 0.00 0.00 84 1011.2
20260507162658 13 158 12.9 20.9 0.00 0.00 0.00 84 1011.2
20260507162535 13 323 14.5 20.9 0.00 0.00 0.00 86 1011.2
20260507162454 13 328 8.0 20.9 0.00 0.00 0.00 87 1011.2
20260507162334 13 332 8.0 20.9 0.00 0.00 0.00 88 1011.2
20260507162233 13 126 6.4 20.9 0.00 0.00 0.00 89 1011.2
20260507162132 12 311 12.9 20.9 0.00 0.00 0.00 89 1011.2
20260507162051 12 306 12.9 20.9 0.00 0.00 0.00 89 1011.2
20260507161933 12 337 14.5 20.9 0.00 0.00 0.00 90 1011.2
20260507161831 12 330 11.3 20.9 0.00 0.00 0.00 90 1011.2
20260507161729 12 332 14.5 20.9 0.00 0.00 0.00 92 1011.2
20260507161700 12 329 12.9 25.7 0.00 0.00 0.00 92 1011.2
20260507161539 12 270 12.9 25.7 0.00 0.00 0.00 95 1011.2
20260507161436 12 299 12.9 25.7 0.00 0.00 0.00 96 1011.2
20260507161334 12 326 12.9 25.7 0.00 0.00 0.00 96 1011.3
20260507161238 12 92 12.9 25.7 0.00 0.00 0.00 97 1011.3
20260507161137 12 320 11.3 25.7 0.00 0.00 0.00 100 1011.3
20260507161036 12 178 12.9 25.7 0.00 0.00 0.00 100 1011.3
20260507160935 12 326 14.5 25.7 0.00 0.00 0.00 100 1011.3
20260507160833 12 227 16.1 25.7 0.00 0.00 0.00 100 1011.3
20260507160732 12 313 9.7 25.7 0.00 0.00 0.00 100 1011.3
20260507160630 12 82 12.9 29.0 0.00 0.00 0.00 100 1011.3
20260507160533 12 330 3.2 29.0 0.00 0.00 0.00 100 1011.3
20260507160432 12 191 8.0 29.0 0.00 0.00 0.00 100 1011.3
20260507160330 12 226 11.3 29.0 0.00 0.00 0.00 100 1011.3
20260507160229 12 99 14.5 29.0 0.00 0.00 0.00 100 1011.3
20260507160200 12 320 16.1 30.6 0.00 0.00 0.00 100 1011.3
20260507160037 12 257 16.1 30.6 0.00 0.00 0.00 100 1011.3
20260507155935 12 325 9.7 30.6 0.00 0.00 0.00 100 1011.3
20260507155837 12 332 16.1 32.2 0.00 0.00 0.00 100 1011.1
20260507155735 12 311 14.5 32.2 0.00 0.00 0.00 100 1011.1
20260507155634 11 295 11.3 32.2 0.00 0.00 0.00 100 1011.1
20260507155532 11 298 11.3 32.2 0.00 0.00 0.00 100 1011.1
20260507155430 11 253 16.1 32.2 0.00 0.00 0.00 100 1011.1
20260507155328 11 256 19.3 32.2 0.00 0.00 0.00 100 1011.1
20260507155226 11 136 11.3 33.8 0.00 0.00 0.00 100 1011.1
20260507155149 11 284 22.5 33.8 0.00 0.00 0.00 100 1011.1
20260507155029 11 320 24.1 33.8 0.00 0.00 0.00 100 1011.1
20260507154929 11 287 16.1 33.8 0.00 0.00 0.00 100 1011.1
20260507154827 11 176 19.3 33.8 0.00 0.00 0.00 100 1011.1
20260507154725 11 143 20.9 33.8 0.00 0.00 0.00 100 1011.1
20260507154658 11 319 17.7 33.8 0.00 0.00 0.00 100 1011.1
20260507154536 11 267 17.7 33.8 0.00 0.00 0.00 100 1011.1
20260507154439 11 319 22.5 33.8 0.00 0.00 0.00 100 1011.1
20260507154338 11 291 14.5 32.2 0.00 0.00 0.00 100 1011.2
20260507154236 11 272 20.9 32.2 0.00 0.00 0.00 100 1011.2
20260507154135 11 150 22.5 32.2 0.00 0.00 0.00 100 1011.2
20260507154033 11 323 17.7 32.2 0.00 0.00 0.00 100 1011.2
20260507153935 11 172 16.1 32.2 0.00 0.00 0.00 100 1011.2
20260507153834 11 272 20.9 32.2 0.00 0.00 0.00 100 1011.2
20260507153736 11 257 12.9 27.4 0.00 0.00 0.00 100 1011.2
20260507153655 11 320 8.0 27.4 0.00 0.00 0.00 100 1011.2
20260507153531 11 305 11.3 27.4 0.00 0.00 0.00 100 1011.2
20260507153450 11 205 11.3 27.4 0.00 0.00 0.00 100 1011.2
20260507153328 11 294 14.5 27.4 0.00 0.00 0.00 100 1011.2
20260507153237 11 305 16.1 27.4 0.00 0.00 0.00 100 1011.2
20260507153147 11 339 14.5 27.4 0.00 0.00 0.00 100 1011.2
20260507153024 11 329 11.3 27.4 0.00 0.00 0.00 100 1011.2
20260507152927 11 325 16.1 27.4 0.00 0.00 0.00 100 1011.2
20260507152826 11 304 17.7 25.7 0.00 0.00 0.00 100 1011.2
20260507152724 11 315 16.1 29.0 0.00 0.00 0.00 100 1011.2
20260507152643 11 306 17.7 29.0 0.00 0.00 0.00 100 1011.2
20260507152541 11 308 14.5 29.0 0.00 0.00 0.00 100 1011.2
20260507152440 11 217 16.1 29.0 0.00 0.00 0.00 100 1011.2
20260507152337 11 213 14.5 29.0 0.00 0.00 0.00 100 1011.2
20260507152240 11 329 12.9 29.0 0.00 0.00 0.00 100 1011.2
20260507152138 11 308 11.3 29.0 0.00 0.00 0.00 100 1011.2
20260507152036 11 320 17.7 29.0 0.00 0.00 0.00 100 1011.2
20260507151934 11 320 19.3 29.0 0.00 0.00 0.00 100 1011.2
20260507151833 11 315 8.0 29.0 0.00 0.00 0.00 100 1011.2
20260507151752 11 332 14.5 35.4 0.00 0.00 0.00 100 1011.2
20260507151721 11 328 14.5 35.4 0.00 0.00 0.00 100 1011.2
20260507151537 11 205 11.3 35.4 0.00 0.00 0.00 100 1011.2
20260507151440 11 299 11.3 35.4 0.00 0.00 0.00 100 1011.2
20260507151338 11 152 17.7 35.4 0.00 0.00 0.00 100 1011.2
20260507151300 11 312 12.9 35.4 0.00 0.00 0.00 100 1011.2
20260507151138 11 328 16.1 35.4 0.00 0.00 0.00 100 1011.2
20260507151056 11 322 19.3 35.4 0.00 0.00 0.00 100 1011.2
20260507150954 11 326 24.1 35.4 0.00 0.00 0.00 100 1011.2
20260507150831 11 329 14.5 27.4 0.00 0.00 0.00 100 1011.2
20260507150729 11 328 9.7 27.4 0.00 0.00 0.00 100 1011.2
20260507150632 11 299 6.4 27.4 0.00 0.00 0.00 100 1011.2
20260507150530 10 330 11.3 27.4 0.00 0.00 0.00 100 1011.2
20260507150427 10 336 14.5 27.4 0.00 0.00 0.00 100 1011.2
20260507150327 10 332 11.3 27.4 0.00 0.00 0.00 100 1011.2
20260507150237 10 332 17.7 27.4 0.00 0.00 0.00 100 1011.2
20260507150149 11 209 17.7 27.4 0.00 0.00 0.00 100 1011.2
20260507150025 10 289 19.3 25.7 0.00 0.00 0.00 100 1011.2
20260507145949 10 308 14.5 25.7 0.00 0.00 0.00 100 1011.2
20260507145826 10 306 19.3 30.6 0.00 0.00 0.00 100 1011.2
20260507145725 10 301 19.3 30.6 0.00 0.00 0.00 100 1011.2
20260507145624 10 313 9.7 30.6 0.00 0.00 0.00 100 1011.2
20260507145543 10 329 16.1 30.6 0.00 0.00 0.00 100 1011.2
20260507145440 10 298 17.7 30.6 0.00 0.00 0.00 100 1011.2
20260507145339 10 295 12.9 30.6 0.00 0.00 0.00 100 1011.2
20260507145241 10 316 12.9 30.6 0.00 0.00 0.00 100 1011.2
20260507145140 10 333 14.5 30.6 0.00 0.00 0.00 100 1011.2
20260507145037 10 246 17.7 30.6 0.00 0.00 0.00 100 1011.2
20260507144935 10 285 19.3 30.6 0.00 0.00 0.00 100 1011.2
20260507144834 10 240 20.9 30.6 0.00 0.00 0.00 100 1011.2
20260507144733 10 241 19.3 27.4 0.00 0.00 0.00 100 1011.2
20260507144702 10 278 19.3 25.7 0.00 0.00 0.00 100 1011.2
20260507144541 10 313 19.3 25.7 0.00 0.00 0.00 100 1011.2
20260507144443 10 288 19.3 24.1 0.00 0.00 0.00 100 1011.2
20260507144342 10 330 16.1 30.6 0.00 0.00 0.00 100 1011.1
20260507144241 10 220 12.9 32.2 0.00 0.00 0.00 100 1011.1
20260507144139 10 302 16.1 32.2 0.00 0.00 0.00 100 1011.1
20260507144038 10 294 14.5 32.2 0.00 0.00 0.00 100 1011.1
20260507143938 10 284 17.7 32.2 0.00 0.00 0.00 100 1011.1
20260507143857 10 309 12.9 32.2 0.00 0.00 0.00 100 1011.1
20260507143738 10 58 8.0 32.2 0.00 0.00 0.00 100 1011.1
20260507143637 10 332 11.3 32.2 0.00 0.00 0.00 100 1011.1
20260507143534 10 330 20.9 32.2 0.00 0.00 0.00 100 1011.1
20260507143433 10 236 24.1 32.2 0.00 0.00 0.00 100 1011.1
20260507143332 10 332 14.5 25.7 0.00 0.00 0.00 100 1011.1
20260507143251 10 289 14.5 25.7 0.00 0.00 0.00 100 1011.1
20260507143202 10 323 14.5 25.7 0.00 0.00 0.00 100 1011.1
20260507143039 10 333 16.1 25.7 0.00 0.00 0.00 100 1011.1
20260507142942 10 337 11.3 27.4 0.00 0.00 0.00 100 1011.1
20260507142841 10 330 14.5 27.4 0.00 0.00 0.00 100 1010.8
20260507142739 10 316 14.5 27.4 0.00 0.00 0.00 100 1010.8
20260507142637 10 330 11.3 27.4 0.00 0.00 0.00 100 1010.8
20260507142536 10 326 9.7 27.4 0.00 0.00 0.00 100 1010.8
20260507142454 10 320 8.0 27.4 0.00 0.00 0.00 100 1010.8
20260507142331 10 167 16.1 27.4 0.00 0.00 0.00 100 1010.8
20260507142234 10 328 16.1 27.4 0.00 0.00 0.00 100 1010.8
20260507142132 10 284 16.1 30.6 0.00 0.00 0.00 100 1010.8
20260507142032 10 295 11.3 30.6 0.00 0.00 0.00 100 1010.8
20260507141951 10 261 16.1 30.6 0.00 0.00 0.00 100 1010.8
20260507141828 10 296 14.5 30.6 0.00 0.00 0.00 100 1010.8
20260507141727 10 230 14.5 30.6 0.00 0.00 0.00 100 1010.8
20260507141656 10 333 14.5 30.6 0.00 0.00 0.00 100 1010.8
20260507141538 10 250 16.1 30.6 0.00 0.00 0.00 100 1010.8
20260507141435 10 322 19.3 30.6 0.00 0.00 0.00 100 1010.8
20260507141334 10 265 20.9 30.6 0.00 0.00 0.00 100 1010.7
20260507141233 10 318 12.9 30.6 0.00 0.00 0.00 100 1010.7
20260507141130 10 305 16.1 30.6 0.00 0.00 0.00 100 1010.7
20260507141029 10 248 16.1 30.6 0.00 0.00 0.00 100 1010.7
20260507140927 10 288 12.9 30.6 0.00 0.00 0.00 100 1010.7
20260507140830 10 291 14.5 30.6 0.00 0.00 0.00 100 1010.7
20260507140729 10 243 12.9 30.6 0.00 0.00 0.00 100 1010.7
20260507140628 10 333 14.5 30.6 0.00 0.00 0.00 100 1010.7
20260507140530 10 236 16.1 30.6 0.00 0.00 0.00 100 1010.7
20260507140428 10 193 20.9 30.6 0.00 0.00 0.00 100 1010.7
20260507140325 10 328 22.5 32.2 0.00 0.00 0.00 100 1010.7
20260507140227 10 301 11.3 32.2 0.00 0.00 0.00 100 1010.7
20260507140158 10 328 12.9 33.8 0.00 0.00 0.00 100 1010.7
20260507140038 10 270 19.3 33.8 0.00 0.00 0.00 100 1010.7
20260507135938 10 210 19.3 33.8 0.00 0.00 0.00 100 1010.7
20260507135836 10 326 19.3 33.8 0.00 0.00 0.00 100 1010.6
20260507135735 10 263 19.3 33.8 0.00 0.00 0.00 100 1010.6
20260507135632 10 224 17.7 33.8 0.00 0.00 0.00 100 1010.6
20260507135551 10 254 22.5 33.8 0.00 0.00 0.00 100 1010.6
20260507135432 10 220 24.1 33.8 0.00 0.00 0.00 100 1010.6
20260507135330 10 248 22.5 33.8 0.00 0.00 0.00 100 1010.6
20260507135232 10 282 14.5 33.8 0.00 0.00 0.00 100 1010.6
20260507135130 10 288 19.3 32.2 0.00 0.00 0.00 100 1010.6
20260507135029 10 295 20.9 32.2 0.00 0.00 0.00 100 1010.6
20260507134926 10 285 17.7 32.2 0.00 0.00 0.00 100 1010.6
20260507134825 10 304 22.5 32.2 0.00 0.00 0.00 100 1010.6
20260507134736 10 326 16.1 30.6 0.00 0.00 0.00 100 1010.6
20260507134646 10 333 17.7 30.6 0.00 0.00 0.00 100 1010.6
20260507134524 10 284 17.7 30.6 0.00 0.00 0.00 100 1010.6
20260507134442 10 301 16.1 30.6 0.00 0.00 0.00 100 1010.6
20260507134341 10 80 20.9 30.6 0.00 0.00 0.00 100 1010.2
20260507134238 10 275 16.1 27.4 0.00 0.00 0.00 100 1010.2
20260507134138 10 24 14.5 27.4 0.00 0.00 0.00 100 1010.2
20260507134056 10 330 19.3 27.4 0.00 0.00 0.00 100 1010.2
20260507133938 10 301 20.9 27.4 0.00 0.00 0.00 100 1010.2
20260507133836 10 329 17.7 27.4 0.00 0.00 0.00 100 1010.2
20260507133736 10 114 17.7 27.4 0.00 0.00 0.00 100 1010.2
20260507133654 10 329 17.7 30.6 0.00 0.00 0.00 100 1010.2
20260507133532 10 309 17.7 32.2 0.00 0.00 0.00 100 1010.2
20260507133432 10 306 22.5 32.2 0.00 0.00 0.00 100 1010.2
20260507133350 10 312 20.9 32.2 0.00 0.00 0.00 100 1010.2
20260507133232 10 248 17.7 32.2 0.00 0.00 0.00 100 1010.2
20260507133202 10 136 12.9 32.2 0.00 0.00 0.00 100 1010.2
20260507133039 10 213 16.1 32.2 0.00 0.00 0.00 100 1010.2
20260507132938 10 330 19.3 32.2 0.00 0.00 0.00 100 1010.2
20260507132837 10 323 20.9 32.2 0.00 0.00 0.00 100 1010.1
20260507132735 10 332 25.7 32.2 0.00 0.00 0.00 100 1010.1
20260507132635 10 312 22.5 32.2 0.00 0.00 0.00 100 1010.1
20260507132537 10 289 17.7 32.2 0.00 0.00 0.00 100 1010.1
20260507132435 10 308 19.3 32.2 0.00 0.00 0.00 100 1010.1
20260507132333 10 305 27.4 32.2 0.00 0.00 0.00 100 1010.1
20260507132232 10 328 19.3 32.2 0.00 0.00 0.00 100 1010.1
20260507132130 10 318 22.5 30.6 0.00 0.00 0.00 100 1010.1
20260507132029 10 302 20.9 30.6 0.00 0.00 0.00 100 1010.1
20260507131947 10 294 19.3 30.6 0.00 0.00 0.00 100 1010.1
20260507131831 10 299 17.7 30.6 0.00 0.00 0.00 100 1010.1
20260507131729 10 312 22.5 30.6 0.00 0.00 0.00 100 1010.1
20260507131659 10 326 22.5 30.6 0.00 0.00 0.00 100 1010.1
20260507131537 10 335 22.5 30.6 0.00 0.00 0.00 100 1010.1
20260507131434 10 251 19.3 30.6 0.00 0.00 0.00 100 1010.1
20260507131332 10 313 17.7 30.6 0.00 0.00 0.00 100 1009.9
20260507131231 10 305 19.3 30.6 0.00 0.00 0.00 100 1009.9
20260507131149 10 305 12.9 30.6 0.00 0.00 0.00 100 1009.9
20260507131034 10 315 17.7 30.6 0.00 0.00 0.00 100 1009.9
20260507130952 10 323 17.7 30.6 0.00 0.00 0.00 100 1009.9
20260507130830 10 304 17.7 30.6 0.00 0.00 0.00 100 1009.9
20260507130728 10 329 17.7 30.6 0.00 0.00 0.00 100 1009.9
20260507130647 10 284 20.9 30.6 0.00 0.00 0.00 100 1009.9
20260507130545 10 356 20.9 30.6 0.00 0.00 0.00 100 1009.9
20260507130503 10 274 20.9 30.6 0.00 0.00 0.00 100 1009.9
20260507130340 10 280 20.9 30.6 0.00 0.00 0.00 100 1009.9
20260507130237 10 254 19.3 30.6 0.00 0.00 0.00 100 1009.9
20260507130147 10 329 22.5 30.6 0.00 0.00 0.00 100 1009.9
20260507130025 10 325 25.7 32.2 0.00 0.00 0.00 100 1009.9
20260507125947 10 328 19.3 32.2 0.00 0.00 0.00 100 1009.9
20260507125825 10 332 17.7 32.2 0.00 0.00 0.00 100 1010.1
20260507125724 10 315 17.7 32.2 0.00 0.00 0.00 100 1010.1
20260507125643 10 332 16.1 32.2 0.00 0.00 0.00 100 1010.1
20260507125541 10 332 19.3 32.2 0.00 0.00 0.00 100 1010.1
20260507125443 10 330 20.9 32.2 0.00 0.00 0.00 100 1010.1
20260507125342 10 319 19.3 32.2 0.00 0.00 0.00 100 1010.1
20260507125300 10 328 24.1 32.2 0.00 0.00 0.00 100 1010.1
20260507125158 10 329 27.4 32.2 0.00 0.00 0.00 100 1010.1
20260507125055 10 237 17.7 32.2 0.00 0.00 0.00 100 1010.1
20260507124933 10 315 19.3 32.2 0.00 0.00 0.00 100 1010.1
20260507124831 10 287 20.9 32.2 0.00 0.00 0.00 100 1010.1
20260507124741 10 315 19.3 32.2 0.00 0.00 0.00 100 1010.1
20260507124651 10 319 19.3 32.2 0.00 0.00 0.00 100 1010.1
20260507124534 10 278 24.1 32.2 0.00 0.00 0.00 100 1010.1
20260507124433 10 328 24.1 32.2 0.00 0.00 0.00 100 1010.1
20260507124332 10 313 17.7 30.6 0.00 0.00 0.00 100 1009.7
20260507124230 10 316 20.9 30.6 0.00 0.00 0.00 100 1009.7
20260507124132 10 319 22.5 30.6 0.00 0.00 0.00 100 1009.7
20260507124029 10 291 19.3 30.6 0.00 0.00 0.00 100 1009.7
20260507123929 10 260 14.5 30.6 0.00 0.00 0.00 100 1009.7
20260507123832 10 267 20.9 30.6 0.00 0.00 0.00 100 1009.7
20260507123732 10 208 22.5 32.2 0.00 0.00 0.00 100 1009.7
20260507123630 10 282 16.1 32.2 0.00 0.00 0.00 100 1009.7
20260507123531 10 329 14.5 32.2 0.00 0.00 0.00 100 1009.7
20260507123430 10 237 17.7 32.2 0.00 0.00 0.00 100 1009.7
20260507123328 10 270 19.3 32.2 0.00 0.00 0.00 100 1009.7
20260507123242 10 285 14.5 32.2 0.00 0.00 0.00 100 1009.7
20260507123152 10 312 19.3 32.2 0.00 0.00 0.00 100 1009.7
20260507123029 10 253 17.7 32.2 0.00 0.00 0.00 100 1009.7
20260507122928 10 264 20.9 33.8 0.00 0.00 0.00 100 1009.7
20260507122827 10 188 27.4 33.8 0.00 0.00 0.00 100 1009.7
20260507122729 10 285 24.1 33.8 0.00 0.00 0.00 100 1009.7
20260507122629 10 208 20.9 33.8 0.00 0.00 0.00 100 1009.7
20260507122531 10 320 24.1 33.8 0.00 0.00 0.00 100 1009.7
20260507122429 10 308 19.3 33.8 0.00 0.00 0.00 100 1009.7
20260507122328 10 326 22.5 33.8 0.00 0.00 0.00 100 1009.7
20260507122250 10 261 25.7 33.8 0.00 0.00 0.00 100 1009.7
20260507122149 10 312 24.1 33.8 0.00 0.00 0.00 100 1009.7
20260507122026 10 271 25.7 32.2 0.00 0.00 0.00 100 1009.7
20260507121945 10 236 19.3 32.2 0.00 0.00 0.00 100 1009.7
20260507121824 10 282 20.9 32.2 0.00 0.00 0.00 100 1009.7
20260507121728 10 326 20.9 32.2 0.00 0.00 0.00 100 1009.7
20260507121658 10 298 20.9 32.2 0.00 0.00 0.00 100 1009.7
20260507121535 10 320 14.5 32.2 0.00 0.00 0.00 100 1009.7
20260507121436 10 237 17.7 32.2 0.00 0.00 0.00 100 1009.7
20260507121334 10 280 24.1 32.2 0.00 0.00 0.00 100 1009.3
20260507121254 10 281 20.9 32.2 0.00 0.00 0.00 99 1009.3
20260507121152 10 328 20.9 32.2 0.00 0.00 0.00 99 1009.3
20260507121030 10 233 20.9 32.2 0.00 0.00 0.00 99 1009.3
20260507120932 10 220 22.5 32.2 0.00 0.00 0.00 99 1009.3
20260507120853 10 104 16.1 32.2 0.00 0.00 0.00 99 1009.3
20260507120750 10 312 22.5 32.2 0.00 0.00 0.00 99 1009.3
20260507120628 10 299 20.9 32.2 0.00 0.00 0.00 99 1009.3
20260507120526 10 152 20.9 32.2 0.00 0.00 0.00 99 1009.3
20260507120444 10 246 20.9 33.8 0.00 0.00 0.00 99 1009.3
20260507120343 10 305 20.9 33.8 0.00 0.00 0.00 99 1009.3
20260507120232 10 326 20.9 33.8 0.00 0.00 0.00 99 1009.3
20260507120147 10 274 17.7 33.8 0.00 0.00 0.00 99 1009.3
20260507120043 10 312 17.7 33.8 0.00 0.00 0.00 99 1009.3
20260507115942 10 233 22.5 33.8 0.00 0.00 0.00 99 1009.3
20260507115901 10 260 24.1 33.8 0.00 0.00 0.00 99 1009.0
20260507115738 10 247 20.9 33.8 0.00 0.00 0.00 99 1009.0
20260507115657 10 200 22.5 33.8 0.00 0.00 0.00 99 1009.0
20260507115535 10 299 20.9 32.2 0.00 0.00 0.00 99 1009.0
20260507115433 10 236 19.3 32.2 0.00 0.00 0.00 99 1009.0
20260507115337 10 176 19.3 32.2 0.00 0.00 0.00 99 1009.0
20260507115234 10 287 24.1 32.2 0.00 0.00 0.00 99 1009.0
20260507115133 10 294 19.3 32.2 0.00 0.00 0.00 99 1009.0
20260507115032 10 325 20.9 32.2 0.00 0.00 0.00 99 1009.0
20260507114930 10 278 25.7 32.2 0.00 0.00 0.00 99 1009.0
20260507114830 10 291 27.4 32.2 0.00 0.00 0.00 99 1009.0
20260507114738 10 309 20.9 32.2 0.00 0.00 0.00 99 1009.0
20260507114651 10 325 22.5 32.2 0.00 0.00 0.00 99 1009.0
20260507114530 10 229 22.5 32.2 0.00 0.00 0.00 99 1009.0
20260507114429 10 243 20.9 30.6 0.00 0.00 0.00 99 1009.0
20260507114348 10 316 19.3 30.6 0.00 0.00 0.00 99 1009.2
20260507114245 10 326 19.3 30.6 0.00 0.00 0.00 99 1009.2
20260507114144 10 332 19.3 30.6 0.00 0.00 0.00 99 1009.2
20260507114104 10 325 19.3 30.6 0.00 0.00 0.00 99 1009.2
20260507114001 10 264 19.3 30.6 0.00 0.00 0.00 99 1009.2
20260507113838 10 315 24.1 30.6 0.00 0.00 0.00 99 1009.2
20260507113741 10 328 20.9 30.6 0.00 0.00 0.00 99 1009.2
20260507113639 10 313 20.9 30.6 0.00 0.00 0.00 99 1009.2
20260507113539 10 216 22.5 30.6 0.00 0.00 0.00 99 1009.2
20260507113437 10 326 16.1 30.6 0.00 0.00 0.00 99 1009.2
20260507113335 10 301 20.9 30.6 0.00 0.00 0.00 99 1009.2
20260507113253 10 323 14.5 30.6 0.00 0.00 0.00 99 1009.2
20260507113225 10 320 17.7 32.2 0.00 0.00 0.00 99 1009.2
20260507113040 10 309 20.9 32.2 0.00 0.00 0.00 99 1009.2
20260507112924 10 203 19.3 32.2 0.00 0.00 0.00 99 1009.2
20260507112843 10 271 17.7 32.2 0.00 0.00 0.00 99 1008.7
20260507112801 10 326 19.3 32.2 0.00 0.00 0.00 99 1008.7
20260507112640 10 325 20.9 32.2 0.00 0.00 0.00 99 1008.7
20260507112539 10 282 22.5 32.2 0.00 0.00 0.00 99 1008.7
20260507112438 10 308 22.5 32.2 0.00 0.00 0.00 99 1008.7
20260507112340 10 280 20.9 32.2 0.00 0.00 0.00 99 1008.7
20260507112241 10 288 24.1 32.2 0.00 0.00 0.00 99 1008.7
20260507112140 10 288 20.9 33.8 0.00 0.00 0.00 99 1008.7
20260507112038 10 268 20.9 33.8 0.00 0.00 0.00 99 1008.7
20260507111937 10 294 19.3 33.8 0.00 0.00 0.00 99 1008.7
20260507111835 10 298 22.5 33.8 0.00 0.00 0.00 99 1008.7
20260507111735 10 278 22.5 33.8 0.00 0.00 0.00 99 1008.7
20260507111704 10 299 20.9 33.8 0.00 0.00 0.00 99 1008.7
20260507111526 10 291 20.9 33.8 0.00 0.00 0.00 99 1008.7
20260507111424 10 325 20.9 33.8 0.00 0.00 0.00 99 1008.7
20260507111343 10 309 22.5 33.8 0.00 0.00 0.00 99 1008.6
20260507111241 10 302 27.4 33.8 0.00 0.00 0.00 99 1008.6
20260507111139 10 287 20.9 30.6 0.00 0.00 0.00 99 1008.6
20260507111038 10 330 19.3 29.0 0.00 0.00 0.00 99 1008.6
20260507110957 10 330 20.9 29.0 0.00 0.00 0.00 99 1008.6
20260507110839 10 335 19.3 29.0 0.00 0.00 0.00 99 1008.6
20260507110737 10 299 19.3 29.0 0.00 0.00 0.00 99 1008.6
20260507110655 10 330 17.7 29.0 0.00 0.00 0.00 99 1008.6
20260507110533 10 322 19.3 29.0 0.00 0.00 0.00 99 1008.6
20260507110431 10 328 19.3 29.0 0.00 0.00 0.00 99 1008.6
20260507110331 10 315 20.9 30.6 0.00 0.00 0.00 99 1008.6
20260507110240 10 318 19.3 30.6 0.00 0.00 0.00 99 1008.6
20260507110150 10 332 19.3 30.6 0.00 0.00 0.00 99 1008.6
20260507110031 10 325 19.3 30.6 0.00 0.00 0.00 99 1008.6
20260507105949 10 332 17.7 30.6 0.00 0.00 0.00 99 1008.6
20260507105846 10 309 17.7 30.6 0.00 0.00 0.00 99 1008.3
20260507105724 10 302 19.3 30.6 0.00 0.00 0.00 99 1008.3
20260507105641 10 294 19.3 30.6 0.00 0.00 0.00 99 1008.3
20260507105540 10 332 20.9 30.6 0.00 0.00 0.00 99 1008.3
20260507105438 10 274 22.5 30.6 0.00 0.00 0.00 99 1008.3
20260507105358 10 322 24.1 30.6 0.00 0.00 0.00 98 1008.3
20260507105256 10 316 17.7 30.6 0.00 0.00 0.00 98 1008.3
20260507105158 10 326 20.9 30.6 0.00 0.00 0.00 99 1008.3
20260507105035 10 326 20.9 30.6 0.00 0.00 0.00 98 1008.3
20260507104935 10 308 19.3 29.0 0.00 0.00 0.00 99 1008.3
20260507104832 10 332 20.9 30.6 0.00 0.00 0.00 99 1008.3
20260507104743 10 329 22.5 30.6 0.00 0.00 0.00 98 1008.3
20260507104652 10 330 20.9 30.6 0.00 0.00 0.00 98 1008.3
20260507104550 10 328 17.7 30.6 0.00 0.00 0.00 99 1008.3
20260507104425 10 313 20.9 30.6 0.00 0.00 0.00 99 1008.3
20260507104347 10 304 20.9 30.6 0.00 0.00 0.00 99 1008.3
20260507104305 10 328 19.3 30.6 0.00 0.00 0.00 98 1008.3
20260507104202 10 326 19.3 32.2 0.00 0.00 0.00 99 1008.3
20260507104100 10 288 22.5 32.2 0.00 0.00 0.00 99 1008.3
20260507103938 10 265 22.5 32.2 0.00 0.00 0.00 99 1008.3
20260507103837 10 326 20.9 33.8 0.00 0.00 0.00 99 1008.3
20260507103735 10 325 17.7 33.8 0.00 0.00 0.00 99 1008.3
20260507103653 10 323 19.3 33.8 0.00 0.00 0.00 99 1008.3
20260507103531 10 330 22.5 33.8 0.00 0.00 0.00 99 1008.3
20260507103434 10 329 22.5 33.8 0.00 0.00 0.00 99 1008.3
20260507103334 10 216 24.1 33.8 0.00 0.00 0.00 99 1008.3
20260507103233 10 295 20.9 33.8 0.00 0.00 0.00 99 1008.3
20260507103203 10 281 20.9 33.8 0.00 0.00 0.00 99 1008.3
20260507103039 10 335 22.5 33.8 0.00 0.00 0.00 99 1008.3
20260507102938 10 312 24.1 33.8 0.00 0.00 0.00 98 1008.3
20260507102838 10 308 20.9 32.2 0.00 0.00 0.00 98 1008.2
20260507102756 10 308 19.3 32.2 0.00 0.00 0.00 98 1008.2
20260507102638 10 318 22.5 32.2 0.00 0.00 0.00 99 1008.2
20260507102536 10 347 20.9 32.2 0.00 0.00 0.00 99 1008.2
20260507102455 10 326 19.3 32.2 0.00 0.00 0.00 99 1008.2
20260507102353 10 292 24.1 32.2 0.00 0.00 0.00 98 1008.2
20260507102251 10 257 19.3 30.6 0.00 0.00 0.00 99 1008.2
20260507102128 10 263 16.1 30.6 0.00 0.00 0.00 99 1008.2
20260507102026 10 306 20.9 30.6 0.00 0.00 0.00 98 1008.2
20260507101924 10 291 17.7 33.8 0.00 0.00 0.00 98 1008.2
20260507101827 10 278 20.9 33.8 0.00 0.00 0.00 99 1008.2
20260507101725 10 323 20.9 33.8 0.00 0.00 0.00 99 1008.2
20260507101656 10 332 17.7 33.8 0.00 0.00 0.00 99 1008.2
20260507101533 10 333 20.9 33.8 0.00 0.00 0.00 98 1008.2
20260507101432 10 206 22.5 33.8 0.00 0.00 0.00 98 1008.2
20260507101331 10 322 20.9 33.8 0.00 0.00 0.00 98 1007.8
20260507101229 10 330 19.3 33.8 0.00 0.00 0.00 98 1007.8
20260507101133 10 277 22.5 33.8 0.00 0.00 0.00 98 1007.8
20260507101032 10 284 24.1 33.8 0.00 0.00 0.00 98 1007.8
20260507100950 10 271 24.1 33.8 0.00 0.00 0.00 98 1007.8
20260507100827 10 272 20.9 33.8 0.00 0.00 0.00 98 1007.8
20260507100725 10 243 19.3 33.8 0.00 0.00 0.00 98 1007.8
20260507100644 10 302 20.9 33.8 0.00 0.00 0.00 98 1007.8
20260507100542 10 329 24.1 33.8 0.00 0.00 0.00 98 1007.8
20260507100425 10 312 19.3 30.6 0.00 0.00 0.00 98 1007.8
20260507100324 10 333 22.5 30.6 0.00 0.00 0.00 98 1007.8
20260507100243 10 329 20.9 30.6 0.00 0.00 0.00 98 1007.8
20260507100215 10 291 24.1 33.8 0.00 0.00 0.00 98 1007.8
20260507100031 10 302 20.9 35.4 0.00 0.00 0.00 98 1007.8
20260507095929 10 253 22.5 35.4 0.00 0.00 0.00 98 1007.8
20260507095848 10 168 19.3 35.4 0.00 0.00 0.00 98 1008.5
20260507095746 10 332 20.9 35.4 0.00 0.00 0.00 98 1008.5
20260507095625 10 315 25.7 35.4 0.00 0.00 0.00 98 1008.5
20260507095526 10 265 20.9 35.4 0.00 0.00 0.00 98 1008.5
20260507095424 10 320 17.7 35.4 0.00 0.00 0.00 98 1008.5
20260507095342 10 291 22.5 35.4 0.00 0.00 0.00 98 1008.5
20260507095301 10 308 25.7 35.4 0.00 0.00 0.00 98 1008.5
20260507095142 10 308 19.3 32.2 0.00 0.00 0.00 98 1008.5
20260507095040 10 328 22.5 32.2 0.00 0.00 0.00 98 1008.5
20260507094938 10 318 20.9 33.8 0.00 0.00 0.00 98 1008.5
20260507094835 10 319 24.1 33.8 0.00 0.00 0.00 98 1008.5
20260507094738 10 301 17.7 33.8 0.00 0.00 0.00 98 1008.5
20260507094708 10 325 17.7 33.8 0.00 0.00 0.00 98 1008.5
20260507094524 11 325 22.5 33.8 0.00 0.00 0.00 98 1008.5
20260507094443 11 243 17.7 33.8 0.00 0.00 0.00 98 1008.5
20260507094340 11 212 19.3 33.8 0.00 0.00 0.00 98 1007.7
20260507094240 11 295 22.5 33.8 0.00 0.00 0.00 98 1007.7
20260507094137 11 316 24.1 33.8 0.00 0.00 0.00 98 1007.7
20260507094036 11 296 16.1 32.2 0.00 0.00 0.00 98 1007.7
20260507093939 11 233 20.9 38.6 0.00 0.00 0.00 98 1007.7
20260507093837 11 292 19.3 38.6 0.00 0.00 0.00 98 1007.7
20260507093735 11 247 19.3 38.6 0.00 0.00 0.00 98 1007.7
20260507093654 11 330 19.3 38.6 0.00 0.00 0.00 98 1007.7
20260507093531 11 304 22.5 38.6 0.00 0.00 0.00 98 1007.7
20260507093428 11 212 22.5 38.6 0.00 0.00 0.00 98 1007.7
20260507093348 11 191 22.5 38.6 0.00 0.00 0.00 98 1007.7
20260507093306 11 295 19.3 38.6 0.00 0.00 0.00 98 1007.7
20260507093202 11 306 25.7 38.6 0.00 0.00 0.00 98 1007.7
20260507093039 11 102 19.3 32.2 0.00 0.00 0.00 98 1007.7
20260507092938 11 264 20.9 32.2 0.00 0.00 0.00 98 1007.7
20260507092837 11 284 20.9 32.2 0.00 0.00 0.00 98 1008.2
20260507092735 11 313 20.9 32.2 0.00 0.00 0.00 98 1008.2
20260507092634 11 313 24.1 32.2 0.00 0.00 0.00 98 1008.2
20260507092533 11 226 22.5 32.2 0.00 0.00 0.00 98 1008.2
20260507092436 11 124 24.1 32.2 0.00 0.00 0.00 98 1008.2
20260507092334 11 234 20.9 30.6 0.00 0.00 0.00 98 1008.2
20260507092253 11 312 20.9 30.6 0.00 0.00 0.00 98 1008.2
20260507092129 11 326 24.1 30.6 0.00 0.00 0.00 98 1008.2
20260507092028 11 287 27.4 30.6 0.00 0.00 0.00 98 1008.2
20260507091947 11 305 22.5 29.0 0.00 0.00 0.00 98 1008.2
20260507091845 11 227 22.5 29.0 0.00 0.00 0.00 98 1008.2
20260507091733 11 289 19.3 29.0 0.00 0.00 0.00 98 1008.2
20260507091646 11 227 22.5 29.0 0.00 0.00 0.00 98 1008.2
20260507091524 11 246 17.7 27.4 0.00 0.00 0.00 98 1008.2
20260507091443 11 330 19.3 27.4 0.00 0.00 0.00 98 1008.2
20260507091340 11 274 22.5 27.4 0.00 0.00 0.00 98 1008.3
20260507091238 11 319 24.1 27.4 0.00 0.00 0.00 98 1008.3
20260507091158 11 274 19.3 27.4 0.00 0.00 0.00 98 1008.3
20260507091035 11 296 17.7 27.4 0.00 0.00 0.00 98 1008.3
20260507090934 11 270 14.5 27.4 0.00 0.00 0.00 98 1008.3
20260507090852 11 295 17.7 27.4 0.00 0.00 0.00 98 1008.3
20260507090733 11 236 17.7 27.4 0.00 0.00 0.00 98 1008.3
20260507090632 11 86 16.1 30.6 0.00 0.00 0.00 98 1008.3
20260507090530 11 299 16.1 30.6 0.00 0.00 0.00 98 1008.3
20260507090430 11 295 19.3 30.6 0.00 0.00 0.00 98 1008.3
20260507090329 11 318 17.7 30.6 0.00 0.00 0.00 98 1008.3
20260507090239 11 326 16.1 30.6 0.00 0.00 0.00 98 1008.3
20260507090150 11 329 16.1 30.6 0.00 0.00 0.00 98 1008.3
20260507090030 11 292 19.3 30.6 0.00 0.00 0.00 98 1008.3
20260507085929 11 299 20.9 30.6 0.00 0.00 0.00 98 1008.3
20260507085827 11 251 25.7 30.6 0.00 0.00 0.00 98 1008.0
20260507085727 11 328 19.3 27.4 0.00 0.00 0.00 98 1008.0
20260507085624 11 319 17.7 27.4 0.00 0.00 0.00 98 1008.0
20260507085544 11 284 16.1 27.4 0.00 0.00 0.00 98 1008.0
20260507085441 11 69 14.5 29.0 0.00 0.00 0.00 98 1008.0
20260507085404 11 294 14.5 29.0 0.00 0.00 0.00 98 1008.0
20260507085242 11 328 17.7 30.6 0.00 0.00 0.00 98 1008.0
20260507085140 11 306 19.3 30.6 0.00 0.00 0.00 98 1008.0
20260507085039 11 326 19.3 30.6 0.00 0.00 0.00 98 1008.0
20260507084937 11 323 17.7 30.6 0.00 0.00 0.00 98 1008.0
20260507084835 11 302 17.7 30.6 0.00 0.00 0.00 98 1008.0
20260507084734 11 323 19.3 30.6 0.00 0.00 0.00 98 1008.0
20260507084708 11 313 22.5 32.2 0.00 0.00 0.00 98 1008.0
20260507084525 11 316 19.3 32.2 0.00 0.00 0.00 98 1008.0
20260507084424 11 184 25.7 32.2 0.00 0.00 0.00 98 1008.0
20260507084341 11 311 25.7 32.2 0.00 0.00 0.00 98 1008.8
20260507084239 11 328 19.3 32.2 0.00 0.00 0.00 98 1008.8
20260507084138 11 313 14.5 32.2 0.00 0.00 0.00 98 1008.8
20260507084036 11 311 19.3 32.2 0.00 0.00 0.00 98 1008.8
20260507083939 11 219 20.9 32.2 0.00 0.00 0.00 98 1008.8
20260507083858 11 329 24.1 32.2 0.00 0.00 0.00 98 1008.8
20260507083736 11 319 22.5 32.2 0.00 0.00 0.00 98 1008.8
20260507083634 11 298 24.1 29.0 0.00 0.00 0.00 98 1008.8
20260507083533 11 306 22.5 29.0 0.00 0.00 0.00 98 1008.8
20260507083431 11 313 20.9 29.0 0.00 0.00 0.00 98 1008.8
20260507083330 11 318 22.5 29.0 0.00 0.00 0.00 98 1008.8
20260507083243 11 326 17.7 27.4 0.00 0.00 0.00 98 1008.8
20260507083154 11 240 19.3 27.4 0.00 0.00 0.00 98 1008.8
20260507083030 11 254 16.1 27.4 0.00 0.00 0.00 98 1008.8
20260507082929 11 344 17.7 27.4 0.00 0.00 0.00 98 1008.8
20260507082827 11 325 14.5 27.4 0.00 0.00 0.00 98 1008.8
20260507082745 11 326 20.9 27.4 0.00 0.00 0.00 98 1008.8
20260507082642 11 308 17.7 27.4 0.00 0.00 0.00 98 1008.8
20260507082539 11 306 20.9 27.4 0.00 0.00 0.00 98 1008.8
20260507082442 11 301 19.3 27.4 0.00 0.00 0.00 98 1008.8
20260507082342 11 328 16.1 30.6 0.00 0.00 0.00 98 1008.8
20260507082301 11 326 16.1 30.6 0.00 0.00 0.00 98 1008.8
20260507082138 11 250 17.7 30.6 0.00 0.00 0.00 98 1008.8
20260507082037 11 315 14.5 30.6 0.00 0.00 0.00 98 1008.8
20260507081936 11 312 14.5 30.6 0.00 0.00 0.00 98 1008.8
20260507081854 11 322 14.5 30.6 0.00 0.00 0.00 98 1008.8
20260507081732 11 272 17.7 30.6 0.00 0.00 0.00 98 1008.8
20260507081705 11 289 16.1 30.6 0.00 0.00 0.00 98 1008.8
20260507081603 11 315 20.9 30.6 0.00 0.00 0.00 98 1008.8
20260507081441 11 325 19.3 30.6 0.00 0.00 0.00 98 1008.8
20260507081340 11 287 19.3 25.7 0.00 0.00 0.00 98 1007.1
20260507081240 11 278 19.3 29.0 0.00 0.00 0.00 98 1007.1
20260507081200 11 302 17.7 29.0 0.00 0.00 0.00 98 1007.1
20260507081036 11 304 12.9 29.0 0.00 0.00 0.00 98 1007.1
20260507080935 11 59 14.5 29.0 0.00 0.00 0.00 98 1007.1
20260507080837 11 329 17.7 29.0 0.00 0.00 0.00 98 1007.1
20260507080735 11 329 16.1 29.0 0.00 0.00 0.00 98 1007.1
20260507080634 11 329 14.5 29.0 0.00 0.00 0.00 98 1007.1
20260507080532 11 294 16.1 29.0 0.00 0.00 0.00 98 1007.1
20260507080432 11 311 22.5 29.0 0.00 0.00 0.00 98 1007.1
20260507080329 11 329 19.3 29.0 0.00 0.00 0.00 98 1007.1
20260507080231 11 325 19.3 29.0 0.00 0.00 0.00 98 1007.1
20260507080204 11 277 17.7 29.0 0.00 0.00 0.00 98 1007.1
20260507080039 11 309 19.3 29.0 0.00 0.00 0.00 98 1007.1
20260507075937 11 323 19.3 30.6 0.00 0.00 0.00 98 1007.1
20260507075834 11 322 22.5 30.6 0.00 0.00 0.00 98 1007.8
20260507075732 11 165 20.9 30.6 0.00 0.00 0.00 98 1007.8
20260507075630 11 281 25.7 30.6 0.00 0.00 0.00 98 1007.8
20260507075550 11 326 19.3 30.6 0.00 0.00 0.00 98 1007.8
20260507075432 11 223 20.9 30.6 0.00 0.00 0.00 98 1007.8
20260507075330 11 305 19.3 30.6 0.00 0.00 0.00 98 1007.8
20260507075232 11 325 19.3 32.2 0.00 0.00 0.00 98 1007.8
20260507075130 11 322 24.1 32.2 0.00 0.00 0.00 98 1007.8
20260507075027 11 313 22.5 32.2 0.00 0.00 0.00 98 1007.8
20260507074926 11 316 22.5 32.2 0.00 0.00 0.00 98 1007.8
20260507074824 11 325 20.9 32.2 0.00 0.00 0.00 98 1007.8
20260507074757 11 326 19.3 32.2 0.00 0.00 0.00 98 1007.8
20260507074646 11 217 25.7 32.2 0.00 0.00 0.00 98 1007.8
20260507074544 11 148 24.1 32.2 0.00 0.00 0.00 98 1007.8
20260507074421 11 267 24.1 32.2 0.00 0.00 0.00 98 1007.8
20260507074342 11 312 20.9 32.2 0.00 0.00 0.00 98 1009.8
20260507074241 11 305 19.3 32.2 0.00 0.00 0.00 98 1009.8
20260507074139 11 328 20.9 32.2 0.00 0.00 0.00 98 1009.8
20260507074038 11 326 24.1 32.2 0.00 0.00 0.00 98 1009.8
20260507073940 11 287 27.4 32.2 0.00 0.00 0.00 98 1009.8
20260507073839 11 261 25.7 32.2 0.00 0.00 0.00 98 1009.8
20260507073738 11 284 19.3 30.6 0.00 0.00 0.00 98 1009.8
20260507073637 11 308 19.3 30.6 0.00 0.00 0.00 98 1009.8
20260507073535 11 312 20.9 30.6 0.00 0.00 0.00 98 1009.8
20260507073433 11 254 24.1 30.6 0.00 0.00 0.00 98 1009.8
20260507073352 11 200 17.7 29.0 0.00 0.00 0.00 98 1009.8
20260507073233 11 248 17.7 29.0 0.00 0.00 0.00 98 1009.8
20260507073204 11 323 19.3 29.0 0.00 0.00 0.00 98 1009.8
20260507073040 11 130 19.3 29.0 0.00 0.00 0.00 98 1009.8
20260507072942 11 328 20.9 29.0 0.00 0.00 0.00 98 1009.8
20260507072900 11 176 16.1 29.0 0.00 0.00 0.00 98 1008.0
20260507072737 11 323 17.7 29.0 0.00 0.00 0.00 98 1008.0
20260507072635 11 330 19.3 29.0 0.00 0.00 0.00 98 1008.0
20260507072534 11 301 16.1 29.0 0.00 0.00 0.00 98 1008.0
20260507072457 11 328 20.9 30.6 0.00 0.00 0.00 98 1008.0
20260507072335 11 323 16.1 30.6 0.00 0.00 0.00 98 1008.0
20260507072253 11 274 19.3 30.6 0.00 0.00 0.00 98 1008.0
20260507072130 11 280 20.9 30.6 0.00 0.00 0.00 98 1008.0
20260507072029 11 150 14.5 30.6 0.00 0.00 0.00 98 1008.0
20260507071927 11 251 17.7 30.6 0.00 0.00 0.00 98 1008.0
20260507071826 11 244 22.5 30.6 0.00 0.00 0.00 98 1008.0
20260507071744 11 325 19.3 30.6 0.00 0.00 0.00 98 1008.0
20260507071718 11 305 22.5 30.6 0.00 0.00 0.00 98 1008.0
20260507071536 11 309 22.5 30.6 0.00 0.00 0.00 98 1008.0
20260507071455 11 251 20.9 30.6 0.00 0.00 0.00 98 1008.0
20260507071333 11 325 16.1 30.6 0.00 0.00 0.00 98 1008.3
20260507071231 11 278 17.7 30.6 0.00 0.00 0.00 98 1008.3
20260507071131 11 282 17.7 38.6 0.00 0.00 0.00 98 1008.3
20260507071030 11 320 19.3 38.6 0.00 0.00 0.00 98 1008.3
20260507070932 11 257 20.9 38.6 0.00 0.00 0.00 98 1008.3
20260507070831 11 291 22.5 38.6 0.00 0.00 0.00 98 1008.3
20260507070730 11 272 16.1 38.6 0.00 0.00 0.00 98 1008.3
20260507070629 11 263 17.7 38.6 0.00 0.00 0.00 98 1008.3
20260507070548 11 240 14.5 38.6 0.00 0.00 0.00 98 1008.3
20260507070424 11 175 17.7 38.6 0.00 0.00 0.00 98 1008.3
20260507070343 11 102 20.9 38.6 0.00 0.00 0.00 98 1008.3
20260507070233 11 261 19.3 29.0 0.00 0.00 0.00 98 1008.3
20260507070147 11 318 22.5 29.0 0.00 0.00 0.00 98 1008.3
20260507070043 11 246 22.5 29.0 0.00 0.00 0.00 98 1008.3
20260507070003 11 315 19.3 27.4 0.00 0.00 0.00 98 1008.3
20260507065859 11 257 17.7 27.4 0.00 0.00 0.00 98 1008.6
20260507065736 11 198 17.7 27.4 0.00 0.00 0.00 98 1008.6
20260507065636 11 311 19.3 27.4 0.00 0.00 0.00 98 1008.6
20260507065538 11 292 16.1 27.4 0.00 0.00 0.00 98 1008.6
20260507065437 11 325 17.7 27.4 0.00 0.00 0.00 98 1008.6
20260507065339 11 296 17.7 27.4 0.00 0.00 0.00 98 1008.6
20260507065237 11 316 19.3 27.4 0.00 0.00 0.00 98 1008.6
20260507065136 11 86 17.7 27.4 0.00 0.00 0.00 98 1008.6
20260507065034 11 209 16.1 27.4 0.00 0.00 0.00 98 1008.6
20260507064933 11 316 22.5 27.4 0.00 0.00 0.00 98 1008.6
20260507064852 11 356 19.3 27.4 0.00 0.00 0.00 98 1008.6
20260507064728 11 302 22.5 27.4 0.00 0.00 0.00 98 1008.6
20260507064657 11 241 20.9 27.4 0.00 0.00 0.00 98 1008.6
20260507064538 11 316 17.7 27.4 0.00 0.00 0.00 98 1008.6
20260507064437 11 250 14.5 27.4 0.00 0.00 0.00 98 1008.6
20260507064335 11 313 9.7 27.4 0.00 0.00 0.00 98 1007.9
20260507064234 11 319 14.5 27.4 0.00 0.00 0.00 98 1007.9
20260507064130 11 250 17.7 27.4 0.00 0.00 0.00 98 1007.9
20260507064029 11 326 17.7 27.4 0.00 0.00 0.00 98 1007.9
20260507063929 11 181 19.3 27.4 0.00 0.00 0.00 98 1007.9
20260507063831 11 309 17.7 25.7 0.00 0.00 0.00 98 1007.9
20260507063730 11 241 17.7 25.7 0.00 0.00 0.00 98 1007.9
20260507063628 11 316 19.3 29.0 0.00 0.00 0.00 98 1007.9
20260507063527 11 311 19.3 29.0 0.00 0.00 0.00 98 1007.9
20260507063425 11 144 17.7 29.0 0.00 0.00 0.00 98 1007.9
20260507063343 11 289 12.9 29.0 0.00 0.00 0.00 98 1007.9
20260507063227 11 288 16.1 29.0 0.00 0.00 0.00 98 1007.9
20260507063157 11 263 20.9 29.0 0.00 0.00 0.00 98 1007.9
20260507063034 11 193 20.9 29.0 0.00 0.00 0.00 98 1007.9
20260507062952 11 289 20.9 29.0 0.00 0.00 0.00 98 1007.9
20260507062830 11 243 17.7 29.0 0.00 0.00 0.00 98 1008.6
20260507062729 11 247 19.3 29.0 0.00 0.00 0.00 98 1008.6
20260507062628 11 320 14.5 27.4 0.00 0.00 0.00 98 1008.6
20260507062526 11 217 16.1 27.4 0.00 0.00 0.00 98 1008.6
20260507062429 11 328 16.1 27.4 0.00 0.00 0.00 98 1008.6
20260507062327 11 264 14.5 27.4 0.00 0.00 0.00 98 1008.6
20260507062226 11 304 17.7 27.4 0.00 0.00 0.00 98 1008.6
20260507062125 11 236 16.1 27.4 0.00 0.00 0.00 98 1008.6
20260507062024 11 206 22.5 29.0 0.00 0.00 0.00 98 1008.6
20260507061943 11 184 22.5 29.0 0.00 0.00 0.00 98 1008.6
20260507061824 11 202 17.7 29.0 0.00 0.00 0.00 98 1008.6
20260507061753 11 288 19.3 29.0 0.00 0.00 0.00 98 1008.6
20260507061645 11 182 20.9 29.0 0.00 0.00 0.00 98 1008.6
20260507061543 11 140 19.3 29.0 0.00 0.00 0.00 98 1008.6
20260507061442 11 182 17.7 29.0 0.00 0.00 0.00 98 1008.6
20260507061339 11 265 14.5 29.0 0.00 0.00 0.00 98 1009.8
20260507061237 11 313 20.9 29.0 0.00 0.00 0.00 98 1009.8
20260507061135 11 328 17.7 24.1 0.00 0.00 0.00 98 1009.8
20260507061039 11 217 14.5 24.1 0.00 0.00 0.00 98 1009.8
20260507060938 11 333 12.9 22.5 0.00 0.00 0.00 98 1009.8
20260507060837 11 309 14.5 22.5 0.00 0.00 0.00 98 1009.8
20260507060755 11 315 12.9 22.5 0.00 0.00 0.00 98 1009.8
20260507060632 11 287 16.1 22.5 0.00 0.00 0.00 98 1009.8
20260507060533 11 315 17.7 22.5 0.00 0.00 0.00 98 1009.8
20260507060431 11 302 12.9 22.5 0.00 0.00 0.00 98 1009.8
20260507060334 11 311 12.9 22.5 0.00 0.00 0.00 98 1009.8
20260507060254 11 295 19.3 22.5 0.00 0.00 0.00 98 1009.8
20260507060204 11 326 16.1 22.5 0.00 0.00 0.00 98 1009.8
20260507060043 11 313 17.7 22.5 0.00 0.00 0.00 98 1009.8
20260507055941 11 308 19.3 22.5 0.00 0.00 0.00 98 1009.8
20260507055838 11 304 16.1 25.7 0.00 0.00 0.00 98 1009.8
20260507055737 11 326 14.5 25.7 0.00 0.00 0.00 98 1009.8
20260507055636 11 329 11.3 25.7 0.00 0.00 0.00 98 1009.8
20260507055538 11 328 12.9 25.7 0.00 0.00 0.00 98 1009.8
20260507055436 11 267 11.3 25.7 0.00 0.00 0.00 98 1009.8
20260507055335 11 220 12.9 25.7 0.00 0.00 0.00 98 1009.8
20260507055253 11 329 17.7 25.7 0.00 0.00 0.00 98 1009.8
20260507055131 11 258 17.7 27.4 0.00 0.00 0.00 98 1009.8
20260507055030 11 301 17.7 27.4 0.00 0.00 0.00 98 1009.8
20260507054929 11 230 16.1 27.4 0.00 0.00 0.00 98 1009.8
20260507054832 11 261 14.5 27.4 0.00 0.00 0.00 98 1009.8
20260507054729 11 271 17.7 27.4 0.00 0.00 0.00 98 1009.8
20260507054657 12 196 17.7 27.4 0.00 0.00 0.00 98 1009.8
20260507054535 11 140 20.9 27.4 0.00 0.00 0.00 98 1009.8
20260507054434 11 244 16.1 27.4 0.00 0.00 0.00 98 1009.8
20260507054332 12 244 20.9 27.4 0.00 0.00 0.00 98 1009.4
20260507054234 12 289 16.1 27.4 0.00 0.00 0.00 98 1009.4
20260507054152 11 311 16.1 27.4 0.00 0.00 0.00 98 1009.4
20260507054034 11 267 16.1 27.4 0.00 0.00 0.00 98 1009.4
20260507053934 11 296 16.1 27.4 0.00 0.00 0.00 98 1009.4
20260507053833 11 284 17.7 27.4 0.00 0.00 0.00 98 1009.4
20260507053731 11 294 19.3 27.4 0.00 0.00 0.00 98 1009.4
20260507053630 11 227 22.5 27.4 0.00 0.00 0.00 98 1009.4
20260507053548 12 240 17.7 22.5 0.00 0.00 0.00 98 1009.4
20260507053427 11 325 17.7 22.5 0.00 0.00 0.00 98 1009.4
20260507053329 11 257 17.7 22.5 0.00 0.00 0.00 98 1009.4
20260507053249 11 306 19.3 22.5 0.00 0.00 0.00 98 1009.4
20260507053158 12 206 16.1 24.1 0.00 0.00 0.00 98 1009.4
20260507053035 12 265 17.7 27.4 0.00 0.00 0.00 98 1009.4
20260507052935 11 291 14.5 27.4 0.00 0.00 0.00 98 1009.4
20260507052833 11 291 17.7 27.4 0.00 0.00 0.00 98 1009.9
20260507052732 12 288 17.7 27.4 0.00 0.00 0.00 98 1009.9
20260507052633 11 305 16.1 27.4 0.00 0.00 0.00 98 1009.9
20260507052532 12 316 14.5 27.4 0.00 0.00 0.00 98 1009.9
20260507052431 12 227 14.5 27.4 0.00 0.00 0.00 98 1009.9
20260507052330 11 318 17.7 27.4 0.00 0.00 0.00 98 1009.9
20260507052228 12 212 19.3 27.4 0.00 0.00 0.00 98 1009.9
20260507052126 11 227 17.7 24.1 0.00 0.00 0.00 98 1009.9
20260507052026 11 186 19.3 29.0 0.00 0.00 0.00 98 1009.9
20260507051928 12 215 17.7 29.0 0.00 0.00 0.00 98 1009.9
20260507051826 12 285 16.1 29.0 0.00 0.00 0.00 98 1009.9
20260507051724 12 141 17.7 29.0 0.00 0.00 0.00 98 1009.9
20260507051655 11 328 17.7 29.0 0.00 0.00 0.00 98 1009.9
20260507051530 11 254 17.7 29.0 0.00 0.00 0.00 98 1009.9
20260507051429 12 147 20.9 29.0 0.00 0.00 0.00 98 1009.9
20260507051326 12 328 17.7 29.0 0.00 0.00 0.00 98 1009.8
20260507051229 12 319 20.9 29.0 0.00 0.00 0.00 98 1009.8
20260507051128 12 217 19.3 29.0 0.00 0.00 0.00 98 1009.8
20260507051026 12 247 17.7 29.0 0.00 0.00 0.00 98 1009.8
20260507050945 12 182 20.9 29.0 0.00 0.00 0.00 98 1009.8
20260507050843 12 205 19.3 27.4 0.00 0.00 0.00 98 1009.8
20260507050800 12 260 19.3 25.7 0.00 0.00 0.00 98 1009.8
20260507050658 12 244 19.3 25.7 0.00 0.00 0.00 98 1009.8
20260507050535 12 233 16.1 22.5 0.00 0.00 0.00 98 1009.8
20260507050434 12 256 14.5 22.5 0.00 0.00 0.00 98 1009.8
20260507050336 12 328 14.5 22.5 0.00 0.00 0.00 98 1009.8
20260507050234 12 316 14.5 22.5 0.00 0.00 0.00 98 1009.8
20260507050205 12 247 17.7 22.5 0.00 0.00 0.00 98 1009.8
20260507050041 12 326 17.7 22.5 0.00 0.00 0.00 98 1009.8
20260507045940 12 291 19.3 22.5 0.00 0.00 0.00 98 1009.8
20260507045902 12 306 16.1 22.5 0.00 0.00 0.00 98 1009.8
20260507045759 12 288 14.5 22.5 0.00 0.00 0.00 98 1009.8
20260507045636 12 319 14.5 22.5 0.00 0.00 0.00 98 1009.8
20260507045559 12 322 17.7 22.5 0.00 0.00 0.00 98 1009.8
20260507045436 12 329 12.9 22.5 0.00 0.00 0.00 98 1009.8
20260507045335 12 329 12.9 22.5 0.00 0.00 0.00 98 1009.8
20260507045233 12 143 16.1 22.5 0.00 0.00 0.00 98 1009.8
20260507045131 12 202 14.5 27.4 0.00 0.00 0.00 98 1009.8
20260507045030 12 312 16.1 27.4 0.00 0.00 0.00 98 1009.8
20260507044929 12 323 16.1 27.4 0.00 0.00 0.00 98 1009.8
20260507044831 12 325 19.3 27.4 0.00 0.00 0.00 98 1009.8
20260507044800 12 289 11.3 27.4 0.00 0.00 0.00 98 1009.8
20260507044647 12 205 12.9 27.4 0.00 0.00 0.00 98 1009.8
20260507044526 12 305 12.9 27.4 0.00 0.00 0.00 98 1009.8
20260507044425 12 127 17.7 27.4 0.00 0.00 0.00 98 1009.8
20260507044343 12 272 16.1 27.4 0.00 0.00 0.00 98 1009.6
20260507044242 12 275 16.1 27.4 0.00 0.00 0.00 98 1009.6
20260507044141 12 174 16.1 20.9 0.00 0.00 0.00 98 1009.6
20260507044103 12 318 14.5 22.5 0.00 0.00 0.00 98 1009.6
20260507043940 12 274 14.5 22.5 0.00 0.00 0.00 98 1009.6
20260507043839 12 296 14.5 22.5 0.00 0.00 0.00 98 1009.6
20260507043738 12 199 17.7 22.5 0.00 0.00 0.00 98 1009.6
20260507043637 12 320 11.3 22.5 0.00 0.00 0.00 98 1009.6
20260507043534 12 325 8.0 22.5 0.00 0.00 0.00 98 1009.6
20260507043432 12 138 14.5 22.5 0.00 0.00 0.00 98 1009.6
20260507043331 12 330 19.3 22.5 0.00 0.00 0.00 98 1009.6
20260507043253 12 309 19.3 22.5 0.00 0.00 0.00 98 1009.6
20260507043224 12 336 16.1 22.5 0.00 0.00 0.00 98 1009.6
20260507043038 12 313 14.5 22.5 0.00 0.00 0.00 98 1009.6
20260507042937 12 264 12.9 22.5 0.00 0.00 0.00 98 1009.6
20260507042859 12 328 12.9 22.5 0.00 0.00 0.00 98 1009.8
20260507042736 12 301 16.1 22.5 0.00 0.00 0.00 98 1009.8
20260507042634 12 311 14.5 22.5 0.00 0.00 0.00 98 1009.8
20260507042532 12 244 17.7 22.5 0.00 0.00 0.00 98 1009.8
20260507042434 12 124 19.3 22.5 0.00 0.00 0.00 98 1009.8
20260507042332 12 328 19.3 22.5 0.00 0.00 0.00 98 1009.8
20260507042230 12 326 16.1 22.5 0.00 0.00 0.00 98 1009.8
20260507042128 12 268 14.5 22.5 0.00 0.00 0.00 98 1009.8
20260507042027 12 288 19.3 22.5 0.00 0.00 0.00 98 1009.8
20260507041945 12 298 17.7 22.5 0.00 0.00 0.00 98 1009.8
20260507041842 12 199 16.1 22.5 0.00 0.00 0.00 98 1009.8
20260507041735 12 254 19.3 22.5 0.00 0.00 0.00 98 1009.8
20260507041645 12 284 12.9 19.3 0.00 0.00 0.00 98 1009.8
20260507041542 12 232 11.3 19.3 0.00 0.00 0.00 98 1009.8
20260507041422 12 328 16.1 20.9 0.00 0.00 0.00 98 1009.8
20260507041344 12 220 14.5 22.5 0.00 0.00 0.00 98 1009.3
20260507041302 12 280 14.5 22.5 0.00 0.00 0.00 98 1009.3
20260507041140 12 299 16.1 22.5 0.00 0.00 0.00 98 1009.3
20260507041039 12 240 11.3 22.5 0.00 0.00 0.00 98 1009.3
20260507040941 12 287 12.9 22.5 0.00 0.00 0.00 98 1009.3
20260507040839 12 320 14.5 22.5 0.00 0.00 0.00 98 1009.3
20260507040738 12 322 12.9 22.5 0.00 0.00 0.00 98 1009.3
20260507040656 12 107 16.1 22.5 0.00 0.00 0.00 98 1009.3
20260507040534 12 298 16.1 22.5 0.00 0.00 0.00 98 1009.3
20260507040434 12 302 17.7 22.5 0.00 0.00 0.00 98 1009.3
20260507040332 12 296 14.5 20.9 0.00 0.00 0.00 98 1009.3
20260507040235 12 328 11.3 20.9 0.00 0.00 0.00 98 1009.3
20260507040205 12 165 12.9 22.5 0.00 0.00 0.00 98 1009.3
20260507040042 12 325 14.5 22.5 0.00 0.00 0.00 98 1009.3
20260507040002 12 257 14.5 22.5 0.00 0.00 0.00 98 1009.3
20260507035900 12 322 14.5 22.5 0.00 0.00 0.00 98 1009.6
20260507035738 12 332 14.5 22.5 0.00 0.00 0.00 98 1009.6
20260507035657 12 328 14.5 22.5 0.00 0.00 0.00 98 1009.6
20260507035534 12 263 14.5 22.5 0.00 0.00 0.00 98 1009.6
20260507035432 12 323 14.5 22.5 0.00 0.00 0.00 98 1009.6
20260507035336 12 104 14.5 22.5 0.00 0.00 0.00 98 1009.6
20260507035235 12 304 14.5 20.9 0.00 0.00 0.00 98 1009.6
20260507035133 12 301 14.5 20.9 0.00 0.00 0.00 98 1009.6
20260507035032 12 313 16.1 20.9 0.00 0.00 0.00 98 1009.6
20260507034951 12 188 14.5 20.9 0.00 0.00 0.00 98 1009.6
20260507034828 12 322 14.5 20.9 0.00 0.00 0.00 98 1009.6
20260507034726 12 232 14.5 20.9 0.00 0.00 0.00 98 1009.6
20260507034700 12 315 14.5 20.9 0.00 0.00 0.00 98 1009.6
20260507034542 12 304 16.1 20.9 0.00 0.00 0.00 98 1009.6
20260507034440 12 234 16.1 20.9 0.00 0.00 0.00 98 1009.6
20260507034339 12 328 14.5 20.9 0.00 0.00 0.00 98 1010.2
20260507034300 12 61 12.9 22.5 0.00 0.00 0.00 98 1010.2
20260507034137 12 220 11.3 22.5 0.00 0.00 0.00 98 1010.2
20260507034035 12 280 12.9 22.5 0.00 0.00 0.00 98 1010.2
20260507033953 12 195 9.7 22.5 0.00 0.00 0.00 98 1010.2
20260507033835 12 103 11.3 22.5 0.00 0.00 0.00 98 1010.2
20260507033736 12 280 12.9 22.5 0.00 0.00 0.00 98 1010.2
20260507033635 12 229 14.5 22.5 0.00 0.00 0.00 98 1010.2
20260507033534 12 257 16.1 22.5 0.00 0.00 0.00 98 1010.2
20260507033432 12 251 19.3 22.5 0.00 0.00 0.00 98 1010.2
20260507033330 12 332 16.1 20.9 0.00 0.00 0.00 98 1010.2
20260507033249 12 319 17.7 22.5 0.00 0.00 0.00 98 1010.2
20260507033204 12 323 17.7 22.5 0.00 0.00 0.00 98 1010.2
20260507033101 12 258 12.9 22.5 0.00 0.00 0.00 98 1010.2
20260507032938 12 353 14.5 27.4 0.00 0.00 0.00 98 1010.2
20260507032837 12 244 14.5 27.4 0.00 0.00 0.00 98 1009.5
20260507032737 12 326 14.5 27.4 0.00 0.00 0.00 98 1009.5
20260507032635 12 308 17.7 27.4 0.00 0.00 0.00 98 1009.5
20260507032532 12 322 17.7 27.4 0.00 0.00 0.00 98 1009.5
20260507032430 12 302 16.1 27.4 0.00 0.00 0.00 98 1009.5
20260507032332 12 257 14.5 27.4 0.00 0.00 0.00 98 1009.5
20260507032230 12 271 17.7 27.4 0.00 0.00 0.00 98 1009.5
20260507032129 12 322 17.7 27.4 0.00 0.00 0.00 98 1009.5
20260507032028 12 203 16.1 25.7 0.00 0.00 0.00 98 1009.5
20260507031926 12 217 20.9 25.7 0.00 0.00 0.00 98 1009.5
20260507031825 12 296 16.1 22.5 0.00 0.00 0.00 98 1009.5
20260507031743 12 158 16.1 22.5 0.00 0.00 0.00 98 1009.5
20260507031717 12 296 17.7 22.5 0.00 0.00 0.00 98 1009.5
20260507031554 12 296 17.7 22.5 0.00 0.00 0.00 98 1009.5
20260507031432 12 219 17.7 22.5 0.00 0.00 0.00 98 1009.5
20260507031330 12 312 12.9 22.5 0.00 0.00 0.00 98 1009.7
20260507031249 12 305 12.9 22.5 0.00 0.00 0.00 98 1009.7
20260507031148 12 287 16.1 22.5 0.00 0.00 0.00 98 1009.7
20260507031045 12 196 14.5 20.9 0.00 0.00 0.00 98 1009.7
20260507031004 12 237 12.9 20.9 0.00 0.00 0.00 98 1009.7
20260507030842 12 264 12.9 20.9 0.00 0.00 0.00 98 1009.7
20260507030724 12 220 16.1 20.9 0.00 0.00 0.00 98 1009.7
20260507030643 12 216 14.5 20.9 0.00 0.00 0.00 98 1009.7
20260507030541 12 319 16.1 20.9 0.00 0.00 0.00 98 1009.7
20260507030440 12 309 17.7 22.5 0.00 0.00 0.00 98 1009.7
20260507030338 12 232 17.7 22.5 0.00 0.00 0.00 98 1009.7
20260507030237 12 280 16.1 22.5 0.00 0.00 0.00 98 1009.7
20260507030205 12 240 16.1 22.5 0.00 0.00 0.00 98 1009.7
20260507030027 12 323 14.5 22.5 0.00 0.00 0.00 98 1009.7
20260507025945 12 309 16.1 22.5 0.00 0.00 0.00 97 1009.7
20260507025841 12 316 14.5 22.5 0.00 0.00 0.00 97 1009.8
20260507025737 12 267 16.1 22.5 0.00 0.00 0.00 97 1009.8
20260507025656 12 261 16.1 22.5 0.00 0.00 0.00 97 1009.8
20260507025535 12 226 17.7 22.5 0.00 0.00 0.00 97 1009.8
20260507025437 12 189 19.3 22.5 0.00 0.00 0.00 97 1009.8
20260507025335 12 291 19.3 22.5 0.00 0.00 0.00 97 1009.8
20260507025237 12 246 17.7 20.9 0.00 0.00 0.00 98 1009.8
20260507025136 12 193 17.7 19.3 0.00 0.00 0.00 98 1009.8
20260507025034 12 285 16.1 19.3 0.00 0.00 0.00 98 1009.8
20260507024932 12 185 14.5 19.3 0.00 0.00 0.00 98 1009.8
20260507024830 12 264 17.7 19.3 0.00 0.00 0.00 97 1009.8
20260507024728 12 304 12.9 17.7 0.00 0.00 0.00 98 1009.8
20260507024657 12 104 12.9 19.3 0.00 0.00 0.00 98 1009.8
20260507024539 12 220 9.7 19.3 0.00 0.00 0.00 97 1009.8
20260507024438 12 219 9.7 19.3 0.00 0.00 0.00 97 1009.8
20260507024337 12 312 11.3 19.3 0.00 0.00 0.00 97 1009.3
20260507024236 12 313 12.9 20.9 0.00 0.00 0.00 97 1009.3
20260507024135 12 69 14.5 20.9 0.00 0.00 0.00 97 1009.3
20260507024033 12 130 11.3 20.9 0.00 0.00 0.00 97 1009.3
20260507023932 13 217 14.5 20.9 0.00 0.00 0.00 97 1009.3
20260507023854 13 229 16.1 20.9 0.00 0.00 0.00 97 1009.3
20260507023732 13 323 16.1 20.9 0.00 0.00 0.00 97 1009.3
20260507023630 13 223 17.7 20.9 0.00 0.00 0.00 97 1009.3
20260507023528 13 281 12.9 20.9 0.00 0.00 0.00 97 1009.3
20260507023427 13 322 16.1 20.9 0.00 0.00 0.00 98 1009.3
20260507023325 13 220 11.3 19.3 0.00 0.00 0.00 98 1009.3
20260507023235 13 248 16.1 19.3 0.00 0.00 0.00 98 1009.3
20260507023149 13 323 16.1 19.3 0.00 0.00 0.00 98 1009.3
20260507023026 13 253 11.3 17.7 0.00 0.00 0.00 98 1009.3
20260507022924 13 109 9.7 17.7 0.00 0.00 0.00 98 1009.3
20260507022843 13 322 9.7 17.7 0.00 0.00 0.00 98 1009.6
20260507022742 13 305 8.0 17.7 0.00 0.00 0.00 98 1009.6
20260507022640 13 271 8.0 17.7 0.00 0.00 0.00 98 1009.6
20260507022538 13 229 9.7 17.7 0.00 0.00 0.00 97 1009.6
20260507022440 13 326 12.9 17.7 0.00 0.00 0.00 97 1009.6
20260507022339 13 319 14.5 17.7 0.00 0.00 0.00 97 1009.6
20260507022237 13 322 14.5 17.7 0.00 0.00 0.00 97 1009.6
20260507022136 13 309 12.9 16.1 0.00 0.00 0.00 97 1009.6
20260507022054 13 250 11.3 14.5 0.00 0.00 0.00 97 1009.6
20260507021930 13 299 8.0 14.5 0.00 0.00 0.00 97 1009.6
20260507021829 13 174 6.4 14.5 0.00 0.00 0.00 97 1009.6
20260507021733 13 86 6.4 14.5 0.00 0.00 0.00 97 1009.6
20260507021703 13 148 8.0 14.5 0.00 0.00 0.00 97 1009.6
20260507021540 13 325 9.7 14.5 0.00 0.00 0.00 98 1009.6
20260507021438 13 326 11.3 14.5 0.00 0.00 0.00 98 1009.6
20260507021337 13 329 11.3 14.5 0.00 0.00 0.00 98 1009.2
20260507021239 13 226 11.3 14.5 0.00 0.00 0.00 98 1009.2
20260507021138 13 328 12.9 14.5 0.00 0.00 0.00 98 1009.2
20260507021041 13 318 11.3 14.5 0.00 0.00 0.00 97 1009.2
20260507020959 13 320 9.7 11.3 0.00 0.00 0.00 98 1009.2
20260507020837 13 145 6.4 12.9 0.00 0.00 0.00 98 1009.2
20260507020736 13 295 6.4 12.9 0.00 0.00 0.00 98 1009.2
20260507020656 13 288 9.7 12.9 0.00 0.00 0.00 97 1009.2
20260507020534 13 329 9.7 12.9 0.00 0.00 0.00 97 1009.2
20260507020431 13 219 9.7 12.9 0.00 0.00 0.00 97 1009.2
20260507020330 13 169 9.7 12.9 0.00 0.00 0.00 97 1009.2
20260507020232 13 157 9.7 12.9 0.00 0.00 0.00 97 1009.2
20260507020202 13 215 9.7 12.9 0.00 0.00 0.00 97 1009.2
20260507020038 13 160 11.3 12.9 0.00 0.00 0.00 97 1009.2
20260507015937 13 318 11.3 12.9 0.00 0.00 0.00 97 1009.2
20260507015835 13 322 11.3 12.9 0.00 0.00 0.00 97 1009.2
20260507015734 13 270 9.7 12.9 0.00 0.00 0.00 97 1009.2
20260507015634 13 270 9.7 12.9 0.00 0.00 0.00 97 1009.2
20260507015537 13 230 8.0 12.9 0.00 0.00 0.00 97 1009.2
20260507015456 13 247 9.7 12.9 0.00 0.00 0.00 97 1009.2
20260507015334 13 329 9.7 12.9 0.00 0.00 0.00 97 1009.2
20260507015232 13 326 9.7 12.9 0.00 0.00 0.00 97 1009.2
20260507015130 13 222 9.7 12.9 0.00 0.00 0.00 97 1009.2
20260507015048 13 130 11.3 12.9 0.00 0.00 0.00 97 1009.2
20260507014925 13 332 8.0 12.9 0.00 0.00 0.00 97 1009.2
20260507014829 13 312 8.0 16.1 0.00 0.00 0.00 97 1009.2
20260507014728 13 258 11.3 16.1 0.00 0.00 0.00 97 1009.2
20260507014657 13 309 11.3 17.7 0.00 0.00 0.00 97 1009.2
20260507014537 13 288 11.3 17.7 0.00 0.00 0.00 97 1009.2
20260507014456 13 326 11.3 17.7 0.00 0.00 0.00 97 1009.2
20260507014334 13 289 11.3 17.7 0.00 0.00 0.00 97 1009.1
20260507014235 13 203 11.3 17.7 0.00 0.00 0.00 97 1009.1
20260507014136 13 99 9.7 17.7 0.00 0.00 0.00 97 1009.1
20260507014038 13 117 11.3 17.7 0.00 0.00 0.00 97 1009.1
20260507013955 13 330 14.5 17.7 0.00 0.00 0.00 97 1009.1
20260507013833 13 75 12.9 17.7 0.00 0.00 0.00 97 1009.1
20260507013731 13 213 14.5 17.7 0.00 0.00 0.00 97 1009.1
20260507013628 13 278 12.9 17.7 0.00 0.00 0.00 97 1009.1
20260507013547 13 312 14.5 17.7 0.00 0.00 0.00 97 1009.1
20260507013445 13 295 14.5 17.7 0.00 0.00 0.00 97 1009.1
20260507013403 13 330 12.9 17.7 0.00 0.00 0.00 97 1009.1
20260507013236 13 182 12.9 17.7 0.00 0.00 0.00 97 1009.1
20260507013145 13 313 11.3 17.7 0.00 0.00 0.00 97 1009.1
20260507013041 13 323 11.3 17.7 0.00 0.00 0.00 97 1009.1
20260507012940 13 316 11.3 17.7 0.00 0.00 0.00 97 1009.1
20260507012838 13 322 12.9 17.7 0.00 0.00 0.00 97 1008.9
20260507012737 13 326 12.9 17.7 0.00 0.00 0.00 97 1008.9
20260507012637 13 326 14.5 17.7 0.00 0.00 0.00 97 1008.9
20260507012535 13 241 12.9 17.7 0.00 0.00 0.00 97 1008.9
20260507012437 13 145 11.3 17.7 0.00 0.00 0.00 97 1008.9
20260507012355 13 330 12.9 17.7 0.00 0.00 0.00 97 1008.9
20260507012232 13 329 11.3 19.3 0.00 0.00 0.00 97 1008.9
20260507012131 13 306 14.5 19.3 0.00 0.00 0.00 97 1008.9
20260507012029 13 319 16.1 19.3 0.00 0.00 0.00 97 1008.9
20260507011927 13 296 14.5 19.3 0.00 0.00 0.00 97 1008.9
20260507011825 13 92 11.3 19.3 0.00 0.00 0.00 97 1008.9
20260507011739 13 224 12.9 20.9 0.00 0.00 0.00 97 1008.9
20260507011651 13 304 14.5 20.9 0.00 0.00 0.00 97 1008.9
20260507011529 13 247 14.5 22.5 0.00 0.00 0.00 97 1008.9
20260507011447 13 329 14.5 22.5 0.00 0.00 0.00 97 1008.9
20260507011326 13 261 12.9 24.1 0.00 0.00 0.00 97 1009.3
20260507011244 13 325 12.9 24.1 0.00 0.00 0.00 97 1009.3
20260507011203 13 136 14.5 24.1 0.00 0.00 0.00 97 1009.3
20260507011042 13 319 16.1 24.1 0.00 0.00 0.00 97 1009.3
20260507010924 13 326 16.1 24.1 0.00 0.00 0.00 97 1009.3
20260507010842 13 313 19.3 24.1 0.00 0.00 0.00 97 1009.3
20260507010800 13 219 16.1 24.1 0.00 0.00 0.00 97 1009.3
20260507010638 13 169 19.3 24.1 0.00 0.00 0.00 97 1009.3
20260507010557 13 205 20.9 24.1 0.00 0.00 0.00 97 1009.3
20260507010435 13 328 16.1 20.9 0.00 0.00 0.00 97 1009.3
20260507010334 13 236 16.1 19.3 0.00 0.00 0.00 97 1009.3
20260507010243 13 95 12.9 19.3 0.00 0.00 0.00 97 1009.3
20260507010157 13 160 14.5 19.3 0.00 0.00 0.00 97 1009.3
20260507010034 13 328 12.9 17.7 0.00 0.00 0.00 97 1009.3
20260507005932 13 323 12.9 17.7 0.00 0.00 0.00 97 1009.3
20260507005850 13 160 12.9 17.7 0.00 0.00 0.00 97 1009.4
20260507005727 13 329 12.9 17.7 0.00 0.00 0.00 97 1009.4
20260507005627 13 302 11.3 17.7 0.00 0.00 0.00 97 1009.4
20260507005525 13 264 12.9 17.7 0.00 0.00 0.00 97 1009.4
20260507005427 13 268 11.3 17.7 0.00 0.00 0.00 97 1009.4
20260507005324 13 329 14.5 17.7 0.00 0.00 0.00 97 1009.4
20260507005243 13 165 14.5 17.7 0.00 0.00 0.00 97 1009.4
20260507005140 13 285 12.9 17.7 0.00 0.00 0.00 97 1009.4
20260507005039 13 326 14.5 17.7 0.00 0.00 0.00 97 1009.4
20260507004937 13 330 14.5 19.3 0.00 0.00 0.00 97 1009.4
20260507004835 13 328 14.5 19.3 0.00 0.00 0.00 97 1009.4
20260507004744 13 328 11.3 19.3 0.00 0.00 0.00 97 1009.4
20260507004657 13 329 12.9 19.3 0.00 0.00 0.00 97 1009.4
20260507004535 13 281 12.9 19.3 0.00 0.00 0.00 97 1009.4
20260507004432 13 320 12.9 19.3 0.00 0.00 0.00 97 1009.4
20260507004331 13 330 14.5 19.3 0.00 0.00 0.00 97 1009.6
20260507004229 13 319 11.3 19.3 0.00 0.00 0.00 97 1009.6
20260507004127 13 244 14.5 19.3 0.00 0.00 0.00 97 1009.6
20260507004027 13 330 12.9 17.7 0.00 0.00 0.00 97 1009.6
20260507003949 13 298 12.9 17.7 0.00 0.00 0.00 97 1009.6
20260507003827 13 325 14.5 17.7 0.00 0.00 0.00 97 1009.6
20260507003726 13 316 14.5 17.7 0.00 0.00 0.00 97 1009.6
20260507003625 13 144 12.9 17.7 0.00 0.00 0.00 97 1009.6
20260507003528 13 330 4.8 17.7 0.00 0.00 0.00 97 1009.6
20260507003426 13 325 6.4 17.7 0.00 0.00 0.00 97 1009.6
20260507003324 13 326 11.3 19.3 0.00 0.00 0.00 97 1009.6
20260507003247 13 330 12.9 22.5 0.00 0.00 0.00 97 1009.6
20260507003157 13 323 11.3 22.5 0.00 0.00 0.00 97 1009.6
20260507003033 14 284 11.3 22.5 0.00 0.00 0.00 97 1009.6
20260507002953 13 323 11.3 22.5 0.00 0.00 0.00 97 1009.6
20260507002830 13 325 12.9 25.7 0.00 0.00 0.00 97 1009.1
20260507002749 13 281 11.3 25.7 0.00 0.00 0.00 97 1009.1
20260507002627 13 326 12.9 25.7 0.00 0.00 0.00 97 1009.1
20260507002526 13 126 12.9 25.7 0.00 0.00 0.00 97 1009.1
20260507002432 13 184 14.5 25.7 0.00 0.00 0.00 97 1009.1
20260507002330 13 323 14.5 25.7 0.00 0.00 0.00 97 1009.1
20260507002229 13 287 11.3 25.7 0.00 0.00 0.00 97 1009.1
20260507002127 13 313 12.9 25.7 0.00 0.00 0.00 97 1009.1
20260507002046 13 256 14.5 25.7 0.00 0.00 0.00 97 1009.1
20260507001924 13 241 16.1 25.7 0.00 0.00 0.00 97 1009.1
20260507001843 13 326 14.5 25.7 0.00 0.00 0.00 97 1009.1
20260507001737 14 265 17.7 25.7 0.00 0.00 0.00 97 1009.1
20260507001646 13 271 20.9 25.7 0.00 0.00 0.00 97 1009.1
20260507001544 14 329 19.3 25.7 0.00 0.00 0.00 97 1009.1
20260507001441 14 200 14.5 25.7 0.00 0.00 0.00 97 1009.1
20260507001340 14 184 19.3 25.7 0.00 0.00 0.00 97 1009.5
20260507001238 14 227 14.5 25.7 0.00 0.00 0.00 97 1009.5
20260507001136 14 263 16.1 22.5 0.00 0.00 0.00 97 1009.5
20260507001033 14 232 17.7 22.5 0.00 0.00 0.00 97 1009.5
20260507000937 14 329 16.1 22.5 0.00 0.00 0.00 97 1009.5
20260507000835 14 325 16.1 22.5 0.00 0.00 0.00 97 1009.5
20260507000754 14 92 16.1 22.5 0.00 0.00 0.00 97 1009.5
20260507000631 14 189 14.5 22.5 0.00 0.00 0.00 97 1009.5
20260507000532 14 308 14.5 22.5 0.00 0.00 0.00 97 1009.5
20260507000429 14 251 14.5 22.5 0.00 0.00 0.00 97 1009.5
20260507000329 14 354 14.5 20.9 0.00 0.00 0.00 97 1009.5
20260507000248 14 227 11.3 20.9 0.00 0.00 0.00 97 1009.5
20260507000222 14 356 12.9 20.9 0.00 0.00 0.00 97 1009.5
20260507000038 14 328 14.5 20.9 0.00 0.00 0.00 97 1009.5
20260506235937 14 281 11.3 20.9 0.00 0.00 0.00 97 1009.5
20260506235836 14 137 9.7 20.9 0.00 0.00 0.00 97 1009.0
20260506235734 14 360 11.3 20.9 0.00 0.00 0.00 97 1009.0
20260506235631 14 174 9.7 20.9 0.00 0.00 0.00 97 1009.0
20260506235529 14 333 8.0 20.9 0.00 0.00 0.00 97 1009.0
20260506235433 14 329 6.4 20.9 0.00 0.00 0.00 97 1009.0
20260506235332 14 326 11.3 25.7 0.00 0.00 0.00 97 1009.0
20260506235232 14 328 9.7 25.7 0.00 0.00 0.00 97 1009.0
20260506235150 15 119 17.7 25.7 0.00 0.00 0.00 97 1009.0
20260506235046 15 109 11.3 25.7 0.00 0.00 0.00 97 1009.0
20260506234925 15 294 12.9 25.7 0.00 0.00 0.00 97 1009.0
20260506234824 14 220 9.7 25.7 0.00 0.00 0.00 97 1009.0
20260506234755 15 167 12.9 25.7 0.00 0.00 0.00 97 1009.0
20260506234645 15 328 12.9 25.7 0.00 0.00 0.00 97 1009.0
20260506234544 15 199 14.5 25.7 0.00 0.00 0.00 97 1009.0
20260506234442 15 172 14.5 19.3 0.00 0.00 0.00 97 1009.0
20260506234322 15 318 12.9 17.7 0.00 0.00 0.00 97 1009.0
20260506234243 15 277 11.3 17.7 0.00 0.00 0.00 97 1009.0
20260506234142 15 220 8.0 12.9 0.00 0.00 0.00 97 1009.0
20260506234041 15 247 9.7 14.5 0.00 0.00 0.00 97 1009.0
20260506233958 15 145 9.7 17.7 0.00 0.00 0.00 97 1009.0
20260506233840 15 212 9.7 17.7 0.00 0.00 0.00 97 1009.0
20260506233738 15 359 8.0 17.7 0.00 0.00 0.00 97 1009.0
20260506233637 15 329 9.7 17.7 0.00 0.00 0.00 96 1009.0
20260506233536 15 330 9.7 17.7 0.00 0.00 0.00 97 1009.0
20260506233454 15 296 9.7 17.7 0.00 0.00 0.00 96 1009.0
20260506233332 15 329 11.3 17.7 0.00 0.00 0.00 96 1009.0
20260506233301 15 308 12.9 17.7 0.00 0.00 0.00 96 1009.0
20260506233151 15 316 12.9 17.7 0.00 0.00 0.00 96 1009.0
20260506233032 15 274 9.7 17.7 0.00 0.00 0.00 96 1009.0
20260506232950 15 306 9.7 19.3 0.00 0.00 0.00 96 1009.0
20260506232828 15 206 12.9 19.3 0.00 0.00 0.00 96 1009.3
20260506232725 15 333 9.7 19.3 0.00 0.00 0.00 96 1009.3
20260506232643 15 72 12.9 19.3 0.00 0.00 0.00 96 1009.3
20260506232540 15 282 12.9 19.3 0.00 0.00 0.00 96 1009.3
20260506232459 15 308 11.3 22.5 0.00 0.00 0.00 96 1009.3
20260506232336 15 304 11.3 22.5 0.00 0.00 0.00 96 1009.3
20260506232239 15 113 11.3 22.5 0.00 0.00 0.00 96 1009.3
20260506232137 15 346 12.9 22.5 0.00 0.00 0.00 96 1009.3
20260506232035 15 356 11.3 22.5 0.00 0.00 0.00 96 1009.3
20260506231934 15 243 11.3 24.1 0.00 0.00 0.00 96 1009.3
20260506231833 15 330 14.5 24.1 0.00 0.00 0.00 96 1009.3
20260506231743 15 141 11.3 24.1 0.00 0.00 0.00 96 1009.3
20260506231652 15 176 16.1 24.1 0.00 0.00 0.00 96 1009.3
20260506231535 15 14 11.3 24.1 0.00 0.00 0.00 96 1009.3
20260506231436 15 239 14.5 24.1 0.00 0.00 0.00 96 1009.3
20260506231333 16 295 16.1 24.1 0.00 0.00 0.00 96 1009.2
20260506231233 16 328 16.1 24.1 0.00 0.00 0.00 96 1009.2
20260506231131 16 340 17.7 24.1 0.00 0.00 0.00 96 1009.2
20260506231029 16 328 16.1 20.9 0.00 0.00 0.00 96 1009.2
20260506230927 16 356 14.5 20.9 0.00 0.00 0.00 96 1009.2
20260506230850 16 313 12.9 20.9 0.00 0.00 0.00 96 1009.2
20260506230726 16 328 14.5 20.9 0.00 0.00 0.00 96 1009.2
20260506230644 16 352 12.9 20.9 0.00 0.00 0.00 96 1009.2
20260506230542 16 326 11.3 20.9 0.00 0.00 0.00 96 1009.2
20260506230441 16 323 11.3 20.9 0.00 0.00 0.00 97 1009.2
20260506230400 16 229 12.9 20.9 0.00 0.00 0.00 97 1009.2
20260506230237 16 329 12.9 19.3 0.00 0.00 0.00 97 1009.2
20260506230207 16 319 12.9 19.3 0.00 0.00 0.00 97 1009.2
20260506230104 16 349 9.7 19.3 0.00 0.00 0.00 97 1009.2
20260506225941 16 136 11.3 19.3 0.00 0.00 0.00 97 1009.2
20260506225903 16 337 11.3 19.3 0.00 0.00 0.00 97 1009.0
20260506225741 16 344 12.9 19.3 0.00 0.00 0.00 97 1009.0
20260506225639 16 329 12.9 19.3 0.00 0.00 0.00 97 1009.0
20260506225538 16 332 12.9 19.3 0.00 0.00 0.00 97 1009.0
20260506225436 16 328 12.9 19.3 0.00 0.00 0.00 97 1009.0
20260506225355 17 333 8.0 19.3 0.00 0.00 0.00 97 1009.0
20260506225233 16 316 8.0 19.3 0.00 0.00 0.00 97 1009.0
20260506225152 16 350 14.5 19.3 0.00 0.00 0.00 97 1009.0
20260506225034 16 185 9.7 19.3 0.00 0.00 0.00 97 1009.0
20260506224954 17 326 8.0 19.3 0.00 0.00 0.00 97 1009.0
20260506224831 16 326 16.1 19.3 0.00 0.00 0.00 97 1009.0
20260506224741 16 333 11.3 19.3 0.00 0.00 0.00 97 1009.0
20260506224649 16 333 8.0 19.3 0.00 0.00 0.00 97 1009.0
20260506224526 16 333 3.2 19.3 0.00 0.00 0.00 97 1009.0
20260506224424 16 319 9.7 19.3 0.00 0.00 0.00 97 1009.0
20260506224328 16 347 9.7 19.3 0.00 0.00 0.00 97 1008.6
20260506224226 16 326 12.9 19.3 0.00 0.00 0.00 97 1008.6
20260506224124 16 325 9.7 19.3 0.00 0.00 0.00 97 1008.6
20260506224043 16 325 9.7 19.3 0.00 0.00 0.00 97 1008.6
20260506223942 16 326 8.0 19.3 0.00 0.00 0.00 97 1008.6
20260506223839 16 329 11.3 19.3 0.00 0.00 0.00 97 1008.6
20260506223759 16 315 12.9 19.3 0.00 0.00 0.00 97 1008.6
20260506223636 16 328 11.3 20.9 0.00 0.00 0.00 97 1008.6
20260506223538 16 330 6.4 20.9 0.00 0.00 0.00 97 1008.6
20260506223436 16 323 8.0 20.9 0.00 0.00 0.00 97 1008.6
20260506223334 16 329 11.3 20.9 0.00 0.00 0.00 97 1008.6
20260506223243 16 328 4.8 20.9 0.00 0.00 0.00 97 1008.6
20260506223154 16 335 8.0 20.9 0.00 0.00 0.00 97 1008.6
20260506223030 16 333 9.7 20.9 0.00 0.00 0.00 97 1008.6
20260506222928 17 54 9.7 20.9 0.00 0.00 0.00 97 1008.6
20260506222831 16 319 12.9 20.9 0.00 0.00 0.00 97 1008.2
20260506222730 16 326 12.9 20.9 0.00 0.00 0.00 97 1008.2
20260506222628 16 306 11.3 20.9 0.00 0.00 0.00 97 1008.2
20260506222525 16 333 12.9 20.9 0.00 0.00 0.00 97 1008.2
20260506222424 16 346 11.3 20.9 0.00 0.00 0.00 97 1008.2
20260506222342 17 333 12.9 20.9 0.00 0.00 0.00 97 1008.2
20260506222241 17 326 11.3 19.3 0.00 0.00 0.00 97 1008.2
20260506222200 17 315 11.3 19.3 0.00 0.00 0.00 97 1008.2
20260506222041 17 326 12.9 19.3 0.00 0.00 0.00 97 1008.2
20260506221938 17 329 12.9 19.3 0.00 0.00 0.00 97 1008.2
20260506221835 16 333 9.7 19.3 0.00 0.00 0.00 97 1008.2
20260506221734 17 328 9.7 19.3 0.00 0.00 0.00 97 1008.2
20260506221703 16 315 8.0 19.3 0.00 0.00 0.00 97 1008.2
20260506221601 17 357 9.7 19.3 0.00 0.00 0.00 97 1008.2
20260506221439 16 333 12.9 19.3 0.00 0.00 0.00 97 1008.2
20260506221336 17 349 11.3 19.3 0.00 0.00 0.00 97 1008.8
20260506221238 16 340 8.0 19.3 0.00 0.00 0.00 97 1008.8
20260506221137 17 325 9.7 19.3 0.00 0.00 0.00 97 1008.8
20260506221037 17 342 14.5 19.3 0.00 0.00 0.00 97 1008.8
20260506220935 17 330 14.5 17.7 0.00 0.00 0.00 97 1008.8
20260506220853 16 322 9.7 14.5 0.00 0.00 0.00 97 1008.8
20260506220731 17 350 8.0 11.3 0.00 0.00 0.00 97 1008.8
20260506220650 16 316 9.7 11.3 0.00 0.00 0.00 97 1008.8
20260506220527 16 325 3.2 11.3 0.00 0.00 0.00 97 1008.8
20260506220428 16 325 6.4 11.3 0.00 0.00 0.00 97 1008.8
20260506220328 16 323 1.6 11.3 0.00 0.00 0.00 97 1008.8
20260506220237 16 315 1.6 12.9 0.00 0.00 0.00 97 1008.8
20260506220147 16 319 4.8 12.9 0.00 0.00 0.00 97 1008.8
20260506220044 16 319 6.4 12.9 0.00 0.00 0.00 97 1008.8
20260506215941 16 325 6.4 12.9 0.00 0.00 0.00 97 1008.8
20260506215841 16 313 6.4 12.9 0.00 0.00 0.00 97 1008.0
20260506215739 16 319 1.6 12.9 0.00 0.00 0.00 97 1008.0
20260506215642 16 316 6.4 12.9 0.00 0.00 0.00 97 1008.0
20260506215602 16 319 9.7 12.9 0.00 0.00 0.00 97 1008.0
20260506215439 16 333 8.0 12.9 0.00 0.00 0.00 97 1008.0
20260506215336 16 326 6.4 12.9 0.00 0.00 0.00 97 1008.0
20260506215232 16 322 4.8 12.9 0.00 0.00 0.00 97 1008.0
20260506215131 16 329 6.4 12.9 0.00 0.00 0.00 97 1008.0
20260506215029 16 326 4.8 12.9 0.00 0.00 0.00 97 1008.0
20260506214928 16 333 6.4 12.9 0.00 0.00 0.00 97 1008.0
20260506214829 16 323 9.7 12.9 0.00 0.00 0.00 96 1008.0
20260506214740 16 320 6.4 11.3 0.00 0.00 0.00 96 1008.0
20260506214649 16 336 6.4 11.3 0.00 0.00 0.00 96 1008.0
20260506214527 16 340 9.7 11.3 0.00 0.00 0.00 97 1008.0
20260506214446 16 319 6.4 11.3 0.00 0.00 0.00 97 1008.0
20260506214344 16 340 6.4 11.3 0.00 0.00 0.00 96 1008.0
20260506214241 16 340 4.8 11.3 0.00 0.00 0.00 97 1008.0
20260506214159 16 342 4.8 11.3 0.00 0.00 0.00 97 1008.0
20260506214041 16 333 3.2 11.3 0.00 0.00 0.00 97 1008.0
20260506214000 16 326 6.4 11.3 0.00 0.00 0.00 96 1008.0
20260506213837 16 333 8.0 11.3 0.00 0.00 0.00 96 1008.0
20260506213736 16 332 8.0 11.3 0.00 0.00 0.00 96 1008.0
20260506213654 16 330 4.8 11.3 0.00 0.00 0.00 96 1008.0
20260506213531 16 309 3.2 11.3 0.00 0.00 0.00 96 1008.0
20260506213449 17 323 3.2 12.9 0.00 0.00 0.00 96 1008.0
20260506213347 16 328 6.4 14.5 0.00 0.00 0.00 96 1008.0
20260506213246 16 328 9.7 14.5 0.00 0.00 0.00 96 1008.0
20260506213201 16 320 9.7 14.5 0.00 0.00 0.00 96 1008.0
20260506213040 16 326 8.0 14.5 0.00 0.00 0.00 96 1008.0
20260506212937 16 326 6.4 14.5 0.00 0.00 0.00 96 1008.0
20260506212837 16 333 6.4 14.5 0.00 0.00 0.00 96 1008.0
20260506212735 16 323 4.8 14.5 0.00 0.00 0.00 96 1008.0
20260506212634 16 332 9.7 14.5 0.00 0.00 0.00 96 1008.0
20260506212532 16 329 9.7 14.5 0.00 0.00 0.00 96 1008.0
20260506212434 16 326 6.4 14.5 0.00 0.00 0.00 96 1008.0
20260506212353 16 315 8.0 14.5 0.00 0.00 0.00 96 1008.0
20260506212229 16 326 6.4 14.5 0.00 0.00 0.00 96 1008.0
20260506212151 17 329 9.7 14.5 0.00 0.00 0.00 96 1008.0
20260506212029 16 326 11.3 14.5 0.00 0.00 0.00 96 1008.0
20260506211928 16 332 6.4 14.5 0.00 0.00 0.00 96 1008.0
20260506211827 16 337 9.7 14.5 0.00 0.00 0.00 96 1008.0
20260506211731 17 336 11.3 14.5 0.00 0.00 0.00 96 1008.0
20260506211659 16 335 9.7 14.5 0.00 0.00 0.00 96 1008.0
20260506211539 16 323 8.0 12.9 0.00 0.00 0.00 96 1008.0
20260506211458 16 315 6.4 17.7 0.00 0.00 0.00 96 1008.0
20260506211355 16 322 8.0 19.3 0.00 0.00 0.00 96 1007.9
20260506211233 16 322 9.7 19.3 0.00 0.00 0.00 96 1007.9
20260506211132 16 322 11.3 19.3 0.00 0.00 0.00 96 1007.9
20260506211030 16 309 9.7 19.3 0.00 0.00 0.00 96 1007.9